Contract 0xdbeb98858f5d4dca13ea0272b2b786e9415d3992

 
Txn Hash
Block
From
To
Value [Txn Fee]
0xd045775dd70a85fa218fbedfaf757057337abe5c00c2d1b8199f18cfa9e4dd4e85464062021-06-23 11:54:582 hrs 4 mins ago0xc96cb6b892ed0c7fa5736e3af6136373197b9664 IN  Icarus: ZETH Token0 BNB0.00023284
0x66cc918b77eff425263b9a2fa34b983365e28b5e5c96f168a0946f1bfca81daa85450012021-06-23 10:44:063 hrs 15 mins ago0x8f38956f95ae4981a0f1afde298b4427c388121a IN  Icarus: ZETH Token0 BNB0.00023422
0x42bc615033c762738dedbf2ab732b24fb6dd16fe153ee7969fd1cc5af0d0ca9885433772021-06-23 9:22:544 hrs 36 mins ago0xfde15aabe0ca159327cb629adc9c6d26fae396fb IN  Icarus: ZETH Token0 BNB0.00008915
0x812f654e2093d897d54919f3b84b8baf286b3b74514e083cbd1a08376c2ca62e85432012021-06-23 9:14:064 hrs 45 mins ago0x939e10bd7f4479432d6197d017ee1f994a11a588 IN  Icarus: ZETH Token0 BNB0.00023284
0xd43af66cf3dd629841f6ed5ec80520996f1ac94019a30d2d8237c5680637d43d85431342021-06-23 9:10:384 hrs 49 mins ago0x6e411e6fa7424ba35d6ca0ad48c2444abe28cbe7 IN  Icarus: ZETH Token0 BNB0.00023284
0x7f8bbf716b6c23a43ab345d6b6103f8173cd9ea23edc31c34a18398ef00c14c785316512021-06-22 23:32:2014 hrs 27 mins ago0xe4cf64b114c71f79b090971c5cfe9daf616ad447 IN  Icarus: ZETH Token0 BNB0.00023284
0xa2650bd3bdf1be270f00670cb3b486d25d9e1763791ef35ff438e3624d36a42e85305722021-06-22 22:37:5415 hrs 21 mins ago0xf37a30557021d9468f96b4ee6b3d4bd450a4a263 IN  Icarus: ZETH Token0 BNB0.00023422
0xd06dfd151f19a8aaad7517822b28cbc1088466be09f9717cb275e4b14534325f85288742021-06-22 21:12:4216 hrs 47 mins ago0xa9eaef87c01b4c46a691862c7ba94401394b8b9c IN  Icarus: ZETH Token0 BNB0.00023284
0x1976979259c8c20cc500825d3a481987ec3e1061d0a125c96f9dea9e3404111f85270642021-06-22 19:41:4318 hrs 18 mins ago0x6b2b4e71254befb2c23ad2618ab2e6669e29bab4 IN  Icarus: ZETH Token0 BNB0.000281064
0x2ebb601ef62fe5d1fdb8468a3538cfef542ce581dd1e8e53cdd5413031a1c2aa85226022021-06-22 15:55:5622 hrs 3 mins ago0x8b79f9de83b33617c22a4a718cbeae0ea462807a IN  Icarus: ZETH Token0 BNB0.00023284
0xc0b91c1ecf458300f8b58595330049bedaef5a8582ad4155eaa7daebbb52e6f585200282021-06-22 13:46:591 day 12 mins ago0x4ac58370a211f26d488ecc330ca9e632fa485378 IN  Icarus: ZETH Token0 BNB0.0004731244
0x2d234f05a7a476d26c15576f2ba26429166f99a00c724c353366b30e69ea9d1285166322021-06-22 10:55:031 day 3 hrs ago0x2e25324208ebe585b10f936c5c60863ff1f8a54c IN  Icarus: ZETH Token0 BNB0.00023284
0x7ec4e0abe6b2e9552319789f7b1dc489cfa1474b79f545e7dbb7c3c2be25330585164592021-06-22 10:46:241 day 3 hrs ago0x2e9d01d22c3325f70061b537cac64384091f8124 IN  Icarus: ZETH Token0 BNB0.00023422
0x5fcced769b6ea6939ed89a45f4ffc76d9d2f6e5493b6ce6585fae2344876c2f485139422021-06-22 8:40:171 day 5 hrs ago0x7e49fe4645652ef860a74f7b20f8c469a7b2c3be IN  Icarus: ZETH Token0 BNB0.00023422
0xec678bf65757892c13773f820e187eb47d1cc796de7273de9571c96ecd588f1485107022021-06-22 5:57:101 day 8 hrs ago0x9caed12ed045a9dcf4a46a4149e9937b43cd4e38 IN  Icarus: ZETH Token0 BNB0.00023422
0x4cd508dc5646d6cc50857461095e9e3bb179cfce40f09c4c25d4def2fbb2970085105422021-06-22 5:49:101 day 8 hrs ago0x59c77baf06dbde6e24cfd639704a038efca313e6 IN  Icarus: ZETH Token0 BNB0.000665245
0x5af8184b0c6885ef7d98170454218c65f2853422bd124268296c35645688afe085082932021-06-22 3:56:431 day 10 hrs ago0x4aa6b72ab996b80a8cec76f96e032ae25c434c41 IN  Icarus: ZETH Token0 BNB0.00023284
0x1b4bee2fc9c4eaeef91544d1c0f14e87ba79f2ba759a57e7c68d00ccc7f10a1385059502021-06-22 1:58:381 day 12 hrs ago0x6d85b5ea18e217451f163882ed239c34706848ea IN  Icarus: ZETH Token0 BNB0.00023422
0x5227ce649800d9319ebb202371f30b3966a2b4e99736a1c559ad83e45de6aef585017712021-06-21 22:27:461 day 15 hrs ago0x00bb5a70a1a8167fdcc95f04a4c39bad4620ba48 IN  Icarus: ZETH Token0 BNB0.00023422
0xf6c4e8eac79349df6b532ea2771ee78205062a4952ceed16b5be922b296c6ab385017312021-06-21 22:25:461 day 15 hrs ago0x5d7c41b00574126ae4c6e6c088557ca4aff22e19 IN  Icarus: ZETH Token0 BNB0.00046844
0xa836861ac0534c3d7f22b947dad4690103b0eab35e8dfc6793fccb26b40009b884990812021-06-21 20:12:501 day 17 hrs ago0x5d7c41b00574126ae4c6e6c088557ca4aff22e19 IN  Icarus: ZETH Token0 BNB0.00022
0xc9ba685957a675bbbbc37e32c3035ff9c1cacca99b68b32e75093f27cea238df84981662021-06-21 19:26:591 day 18 hrs ago0x6eda3522f6569597da0572f472f79f9e44daa359 IN  Icarus: ZETH Token0 BNB0.00023422
0x530cdb891d69ce4393a4371094376731104910d60a130c7e3a38017c100a78e884980882021-06-21 19:23:051 day 18 hrs ago0x6eda3522f6569597da0572f472f79f9e44daa359 IN  Icarus: ZETH Token0 BNB0.00023284
0x0b6924a00c37e69161cac7adee86c29257064ee08fa6161cbcc679774e8938ee84956992021-06-21 17:23:111 day 20 hrs ago0x4c1fa63be78bb99e0057593c67ad070259772bc6 IN  Icarus: ZETH Token0 BNB0.00023422
0x4abef8e26d66bfc5e06c0b212448fa8a8ced730d323bc6ed87fefddc583a7ee784933082021-06-21 15:23:101 day 22 hrs ago0xb70c8f93862647f9c3746178175ff190f4af8a77 IN  Icarus: ZETH Token0 BNB0.000327908
[ Download CSV Export 

OVERVIEW

ICARUS is a decentralized mining protocol. Users can stake ZETH and receive $BETH and $ICA distributions that correspond to the mining power staked.

Latest 25 internal transaction
Parent Txn Hash Block From To Value
0x261098266609e9d2182a2a37ba912512ae00f7a3f92e3641a34fb99b419682c354274022021-03-05 23:21:23109 days 14 hrs ago 0x54559ad7ec464af2fc360b9405412ec8bb0f48ed Icarus: ZETH Token0 BNB
0x261098266609e9d2182a2a37ba912512ae00f7a3f92e3641a34fb99b419682c354274022021-03-05 23:21:23109 days 14 hrs ago 0x80aa247d3000a9b1029c735ea2602894b0415fab Icarus: ZETH Token0 BNB
0x261098266609e9d2182a2a37ba912512ae00f7a3f92e3641a34fb99b419682c354274022021-03-05 23:21:23109 days 14 hrs ago 0x80aa247d3000a9b1029c735ea2602894b0415fab Icarus: ZETH Token0 BNB
0x9e41240e8d7950d1b4dd4fcba2316e9f44cb0df4ed1dbe7706369506581c3e4254160802021-03-05 13:55:16110 days 4 mins ago 0x54559ad7ec464af2fc360b9405412ec8bb0f48ed Icarus: ZETH Token0 BNB
0x9e41240e8d7950d1b4dd4fcba2316e9f44cb0df4ed1dbe7706369506581c3e4254160802021-03-05 13:55:16110 days 4 mins ago 0x80aa247d3000a9b1029c735ea2602894b0415fab Icarus: ZETH Token0 BNB
0x9e41240e8d7950d1b4dd4fcba2316e9f44cb0df4ed1dbe7706369506581c3e4254160802021-03-05 13:55:16110 days 4 mins ago 0x80aa247d3000a9b1029c735ea2602894b0415fab Icarus: ZETH Token0 BNB
0x9e405d6c030c5451891f102905e290ef24619a2b32f63a6065c08a3a6e47531154134062021-03-05 11:41:34110 days 2 hrs ago 0x54559ad7ec464af2fc360b9405412ec8bb0f48ed Icarus: ZETH Token0 BNB
0x9e405d6c030c5451891f102905e290ef24619a2b32f63a6065c08a3a6e47531154134062021-03-05 11:41:34110 days 2 hrs ago 0x80aa247d3000a9b1029c735ea2602894b0415fab Icarus: ZETH Token0 BNB
0x9e405d6c030c5451891f102905e290ef24619a2b32f63a6065c08a3a6e47531154134062021-03-05 11:41:34110 days 2 hrs ago 0x80aa247d3000a9b1029c735ea2602894b0415fab Icarus: ZETH Token0 BNB
0x80ea568b1fc1a0d4fd09080b3f2045026e255c164bfbc03555966f39c44bc24254092002021-03-05 8:11:16110 days 5 hrs ago 0x54559ad7ec464af2fc360b9405412ec8bb0f48ed Icarus: ZETH Token0 BNB
0x80ea568b1fc1a0d4fd09080b3f2045026e255c164bfbc03555966f39c44bc24254092002021-03-05 8:11:16110 days 5 hrs ago 0x80aa247d3000a9b1029c735ea2602894b0415fab Icarus: ZETH Token0 BNB
0x80ea568b1fc1a0d4fd09080b3f2045026e255c164bfbc03555966f39c44bc24254092002021-03-05 8:11:16110 days 5 hrs ago 0x80aa247d3000a9b1029c735ea2602894b0415fab Icarus: ZETH Token0 BNB
0xed13c2669a98f879c5184a85efdcc21a17ada8078d897de229b987f24453a57a53860622021-03-04 12:54:21111 days 1 hr ago 0x54559ad7ec464af2fc360b9405412ec8bb0f48ed Icarus: ZETH Token0 BNB
0xed13c2669a98f879c5184a85efdcc21a17ada8078d897de229b987f24453a57a53860622021-03-04 12:54:21111 days 1 hr ago 0x80aa247d3000a9b1029c735ea2602894b0415fab Icarus: ZETH Token0 BNB
0xed13c2669a98f879c5184a85efdcc21a17ada8078d897de229b987f24453a57a53860622021-03-04 12:54:21111 days 1 hr ago 0x80aa247d3000a9b1029c735ea2602894b0415fab Icarus: ZETH Token0 BNB
0xb4f39499dbd380c002c95d71e7283732fb964c80c7ce443ae335fb321df9e7bf53676812021-03-03 21:34:37111 days 16 hrs ago 0x54559ad7ec464af2fc360b9405412ec8bb0f48ed Icarus: ZETH Token0 BNB
0xb4f39499dbd380c002c95d71e7283732fb964c80c7ce443ae335fb321df9e7bf53676812021-03-03 21:34:37111 days 16 hrs ago 0x80aa247d3000a9b1029c735ea2602894b0415fab Icarus: ZETH Token0 BNB
0xb4f39499dbd380c002c95d71e7283732fb964c80c7ce443ae335fb321df9e7bf53676812021-03-03 21:34:37111 days 16 hrs ago 0x80aa247d3000a9b1029c735ea2602894b0415fab Icarus: ZETH Token0 BNB
0x91c06cde1eede170067487df5b5ef07217e9829060eabaa0edb745f8605baa0153663252021-03-03 20:26:49111 days 17 hrs ago 0x54559ad7ec464af2fc360b9405412ec8bb0f48ed Icarus: ZETH Token0 BNB
0x91c06cde1eede170067487df5b5ef07217e9829060eabaa0edb745f8605baa0153663252021-03-03 20:26:49111 days 17 hrs ago 0x80aa247d3000a9b1029c735ea2602894b0415fab Icarus: ZETH Token0 BNB
0x91c06cde1eede170067487df5b5ef07217e9829060eabaa0edb745f8605baa0153663252021-03-03 20:26:49111 days 17 hrs ago 0x80aa247d3000a9b1029c735ea2602894b0415fab Icarus: ZETH Token0 BNB
0xfedf813753b8665bbad576f8c0e0c074abc123a46cce4d192ac7ed3a417c02c653650492021-03-03 19:23:01111 days 18 hrs ago 0x54559ad7ec464af2fc360b9405412ec8bb0f48ed Icarus: ZETH Token0 BNB
0xfedf813753b8665bbad576f8c0e0c074abc123a46cce4d192ac7ed3a417c02c653650492021-03-03 19:23:01111 days 18 hrs ago 0x80aa247d3000a9b1029c735ea2602894b0415fab Icarus: ZETH Token0 BNB
0xfedf813753b8665bbad576f8c0e0c074abc123a46cce4d192ac7ed3a417c02c653650492021-03-03 19:23:01111 days 18 hrs ago 0x80aa247d3000a9b1029c735ea2602894b0415fab Icarus: ZETH Token0 BNB
0xc33b0b81535393b019a7e44c688dc0342c7203cb033491ccecb68af45c49d95e53649522021-03-03 19:18:10111 days 18 hrs ago 0x54559ad7ec464af2fc360b9405412ec8bb0f48ed Icarus: ZETH Token0 BNB
[ Download CSV Export 
Loading

Contract Source Code Verified (Exact Match)

Contract Name:
StakingToken

Compiler Version
v0.6.12+commit.27d51765

Optimization Enabled:
Yes with 100 runs

Other Settings:
default evmVersion, MIT license

Contract Source Code (Solidity)

/**
 *Submitted for verification at BscScan.com on 2021-03-03
*/

// Sources flattened with hardhat v2.0.11 https://hardhat.org

// File @openzeppelin/contracts/math/[email protected]

// SPDX-License-Identifier: MIT

pragma solidity >=0.6.0 <0.8.0;

/**
 * @dev Wrappers over Solidity's arithmetic operations with added overflow
 * checks.
 *
 * Arithmetic operations in Solidity wrap on overflow. This can easily result
 * in bugs, because programmers usually assume that an overflow raises an
 * error, which is the standard behavior in high level programming languages.
 * `SafeMath` restores this intuition by reverting the transaction when an
 * operation overflows.
 *
 * Using this library instead of the unchecked operations eliminates an entire
 * class of bugs, so it's recommended to use it always.
 */
library SafeMath {
    /**
     * @dev Returns the addition of two unsigned integers, with an overflow flag.
     *
     * _Available since v3.4._
     */
    function tryAdd(uint256 a, uint256 b)
        internal
        pure
        returns (bool, uint256)
    {
        uint256 c = a + b;
        if (c < a) return (false, 0);
        return (true, c);
    }

    /**
     * @dev Returns the substraction of two unsigned integers, with an overflow flag.
     *
     * _Available since v3.4._
     */
    function trySub(uint256 a, uint256 b)
        internal
        pure
        returns (bool, uint256)
    {
        if (b > a) return (false, 0);
        return (true, a - b);
    }

    /**
     * @dev Returns the multiplication of two unsigned integers, with an overflow flag.
     *
     * _Available since v3.4._
     */
    function tryMul(uint256 a, uint256 b)
        internal
        pure
        returns (bool, uint256)
    {
        // Gas optimization: this is cheaper than requiring 'a' not being zero, but the
        // benefit is lost if 'b' is also tested.
        // See: https://github.com/OpenZeppelin/openzeppelin-contracts/pull/522
        if (a == 0) return (true, 0);
        uint256 c = a * b;
        if (c / a != b) return (false, 0);
        return (true, c);
    }

    /**
     * @dev Returns the division of two unsigned integers, with a division by zero flag.
     *
     * _Available since v3.4._
     */
    function tryDiv(uint256 a, uint256 b)
        internal
        pure
        returns (bool, uint256)
    {
        if (b == 0) return (false, 0);
        return (true, a / b);
    }

    /**
     * @dev Returns the remainder of dividing two unsigned integers, with a division by zero flag.
     *
     * _Available since v3.4._
     */
    function tryMod(uint256 a, uint256 b)
        internal
        pure
        returns (bool, uint256)
    {
        if (b == 0) return (false, 0);
        return (true, a % b);
    }

    /**
     * @dev Returns the addition of two unsigned integers, reverting on
     * overflow.
     *
     * Counterpart to Solidity's `+` operator.
     *
     * Requirements:
     *
     * - Addition cannot overflow.
     */
    function add(uint256 a, uint256 b) internal pure returns (uint256) {
        uint256 c = a + b;
        require(c >= a, "SafeMath: addition overflow");
        return c;
    }

    /**
     * @dev Returns the subtraction of two unsigned integers, reverting on
     * overflow (when the result is negative).
     *
     * Counterpart to Solidity's `-` operator.
     *
     * Requirements:
     *
     * - Subtraction cannot overflow.
     */
    function sub(uint256 a, uint256 b) internal pure returns (uint256) {
        require(b <= a, "SafeMath: subtraction overflow");
        return a - b;
    }

    /**
     * @dev Returns the multiplication of two unsigned integers, reverting on
     * overflow.
     *
     * Counterpart to Solidity's `*` operator.
     *
     * Requirements:
     *
     * - Multiplication cannot overflow.
     */
    function mul(uint256 a, uint256 b) internal pure returns (uint256) {
        if (a == 0) return 0;
        uint256 c = a * b;
        require(c / a == b, "SafeMath: multiplication overflow");
        return c;
    }

    /**
     * @dev Returns the integer division of two unsigned integers, reverting on
     * division by zero. The result is rounded towards zero.
     *
     * Counterpart to Solidity's `/` operator. Note: this function uses a
     * `revert` opcode (which leaves remaining gas untouched) while Solidity
     * uses an invalid opcode to revert (consuming all remaining gas).
     *
     * Requirements:
     *
     * - The divisor cannot be zero.
     */
    function div(uint256 a, uint256 b) internal pure returns (uint256) {
        require(b > 0, "SafeMath: division by zero");
        return a / b;
    }

    /**
     * @dev Returns the remainder of dividing two unsigned integers. (unsigned integer modulo),
     * reverting when dividing by zero.
     *
     * Counterpart to Solidity's `%` operator. This function uses a `revert`
     * opcode (which leaves remaining gas untouched) while Solidity uses an
     * invalid opcode to revert (consuming all remaining gas).
     *
     * Requirements:
     *
     * - The divisor cannot be zero.
     */
    function mod(uint256 a, uint256 b) internal pure returns (uint256) {
        require(b > 0, "SafeMath: modulo by zero");
        return a % b;
    }

    /**
     * @dev Returns the subtraction of two unsigned integers, reverting with custom message on
     * overflow (when the result is negative).
     *
     * CAUTION: This function is deprecated because it requires allocating memory for the error
     * message unnecessarily. For custom revert reasons use {trySub}.
     *
     * Counterpart to Solidity's `-` operator.
     *
     * Requirements:
     *
     * - Subtraction cannot overflow.
     */
    function sub(
        uint256 a,
        uint256 b,
        string memory errorMessage
    ) internal pure returns (uint256) {
        require(b <= a, errorMessage);
        return a - b;
    }

    /**
     * @dev Returns the integer division of two unsigned integers, reverting with custom message on
     * division by zero. The result is rounded towards zero.
     *
     * CAUTION: This function is deprecated because it requires allocating memory for the error
     * message unnecessarily. For custom revert reasons use {tryDiv}.
     *
     * Counterpart to Solidity's `/` operator. Note: this function uses a
     * `revert` opcode (which leaves remaining gas untouched) while Solidity
     * uses an invalid opcode to revert (consuming all remaining gas).
     *
     * Requirements:
     *
     * - The divisor cannot be zero.
     */
    function div(
        uint256 a,
        uint256 b,
        string memory errorMessage
    ) internal pure returns (uint256) {
        require(b > 0, errorMessage);
        return a / b;
    }

    /**
     * @dev Returns the remainder of dividing two unsigned integers. (unsigned integer modulo),
     * reverting with custom message when dividing by zero.
     *
     * CAUTION: This function is deprecated because it requires allocating memory for the error
     * message unnecessarily. For custom revert reasons use {tryMod}.
     *
     * Counterpart to Solidity's `%` operator. This function uses a `revert`
     * opcode (which leaves remaining gas untouched) while Solidity uses an
     * invalid opcode to revert (consuming all remaining gas).
     *
     * Requirements:
     *
     * - The divisor cannot be zero.
     */
    function mod(
        uint256 a,
        uint256 b,
        string memory errorMessage
    ) internal pure returns (uint256) {
        require(b > 0, errorMessage);
        return a % b;
    }
}

// File @openzeppelin/contracts/utils/[email protected]

//

pragma solidity >=0.6.2 <0.8.0;

/**
 * @dev Collection of functions related to the address type
 */
library Address {
    /**
     * @dev Returns true if `account` is a contract.
     *
     * [IMPORTANT]
     * ====
     * It is unsafe to assume that an address for which this function returns
     * false is an externally-owned account (EOA) and not a contract.
     *
     * Among others, `isContract` will return false for the following
     * types of addresses:
     *
     *  - an externally-owned account
     *  - a contract in construction
     *  - an address where a contract will be created
     *  - an address where a contract lived, but was destroyed
     * ====
     */
    function isContract(address account) internal view returns (bool) {
        // This method relies on extcodesize, which returns 0 for contracts in
        // construction, since the code is only stored at the end of the
        // constructor execution.

        uint256 size;
        // solhint-disable-next-line no-inline-assembly
        assembly {
            size := extcodesize(account)
        }
        return size > 0;
    }

    /**
     * @dev Replacement for Solidity's `transfer`: sends `amount` wei to
     * `recipient`, forwarding all available gas and reverting on errors.
     *
     * https://eips.ethereum.org/EIPS/eip-1884[EIP1884] increases the gas cost
     * of certain opcodes, possibly making contracts go over the 2300 gas limit
     * imposed by `transfer`, making them unable to receive funds via
     * `transfer`. {sendValue} removes this limitation.
     *
     * https://diligence.consensys.net/posts/2019/09/stop-using-soliditys-transfer-now/[Learn more].
     *
     * IMPORTANT: because control is transferred to `recipient`, care must be
     * taken to not create reentrancy vulnerabilities. Consider using
     * {ReentrancyGuard} or the
     * https://solidity.readthedocs.io/en/v0.5.11/security-considerations.html#use-the-checks-effects-interactions-pattern[checks-effects-interactions pattern].
     */
    function sendValue(address payable recipient, uint256 amount) internal {
        require(
            address(this).balance >= amount,
            "Address: insufficient balance"
        );

        // solhint-disable-next-line avoid-low-level-calls, avoid-call-value
        (bool success, ) = recipient.call{value: amount}("");
        require(
            success,
            "Address: unable to send value, recipient may have reverted"
        );
    }

    /**
     * @dev Performs a Solidity function call using a low level `call`. A
     * plain`call` is an unsafe replacement for a function call: use this
     * function instead.
     *
     * If `target` reverts with a revert reason, it is bubbled up by this
     * function (like regular Solidity function calls).
     *
     * Returns the raw returned data. To convert to the expected return value,
     * use https://solidity.readthedocs.io/en/latest/units-and-global-variables.html?highlight=abi.decode#abi-encoding-and-decoding-functions[`abi.decode`].
     *
     * Requirements:
     *
     * - `target` must be a contract.
     * - calling `target` with `data` must not revert.
     *
     * _Available since v3.1._
     */
    function functionCall(address target, bytes memory data)
        internal
        returns (bytes memory)
    {
        return functionCall(target, data, "Address: low-level call failed");
    }

    /**
     * @dev Same as {xref-Address-functionCall-address-bytes-}[`functionCall`], but with
     * `errorMessage` as a fallback revert reason when `target` reverts.
     *
     * _Available since v3.1._
     */
    function functionCall(
        address target,
        bytes memory data,
        string memory errorMessage
    ) internal returns (bytes memory) {
        return functionCallWithValue(target, data, 0, errorMessage);
    }

    /**
     * @dev Same as {xref-Address-functionCall-address-bytes-}[`functionCall`],
     * but also transferring `value` wei to `target`.
     *
     * Requirements:
     *
     * - the calling contract must have an ETH balance of at least `value`.
     * - the called Solidity function must be `payable`.
     *
     * _Available since v3.1._
     */
    function functionCallWithValue(
        address target,
        bytes memory data,
        uint256 value
    ) internal returns (bytes memory) {
        return
            functionCallWithValue(
                target,
                data,
                value,
                "Address: low-level call with value failed"
            );
    }

    /**
     * @dev Same as {xref-Address-functionCallWithValue-address-bytes-uint256-}[`functionCallWithValue`], but
     * with `errorMessage` as a fallback revert reason when `target` reverts.
     *
     * _Available since v3.1._
     */
    function functionCallWithValue(
        address target,
        bytes memory data,
        uint256 value,
        string memory errorMessage
    ) internal returns (bytes memory) {
        require(
            address(this).balance >= value,
            "Address: insufficient balance for call"
        );
        require(isContract(target), "Address: call to non-contract");

        // solhint-disable-next-line avoid-low-level-calls
        (bool success, bytes memory returndata) =
            target.call{value: value}(data);
        return _verifyCallResult(success, returndata, errorMessage);
    }

    /**
     * @dev Same as {xref-Address-functionCall-address-bytes-}[`functionCall`],
     * but performing a static call.
     *
     * _Available since v3.3._
     */
    function functionStaticCall(address target, bytes memory data)
        internal
        view
        returns (bytes memory)
    {
        return
            functionStaticCall(
                target,
                data,
                "Address: low-level static call failed"
            );
    }

    /**
     * @dev Same as {xref-Address-functionCall-address-bytes-string-}[`functionCall`],
     * but performing a static call.
     *
     * _Available since v3.3._
     */
    function functionStaticCall(
        address target,
        bytes memory data,
        string memory errorMessage
    ) internal view returns (bytes memory) {
        require(isContract(target), "Address: static call to non-contract");

        // solhint-disable-next-line avoid-low-level-calls
        (bool success, bytes memory returndata) = target.staticcall(data);
        return _verifyCallResult(success, returndata, errorMessage);
    }

    /**
     * @dev Same as {xref-Address-functionCall-address-bytes-}[`functionCall`],
     * but performing a delegate call.
     *
     * _Available since v3.4._
     */
    function functionDelegateCall(address target, bytes memory data)
        internal
        returns (bytes memory)
    {
        return
            functionDelegateCall(
                target,
                data,
                "Address: low-level delegate call failed"
            );
    }

    /**
     * @dev Same as {xref-Address-functionCall-address-bytes-string-}[`functionCall`],
     * but performing a delegate call.
     *
     * _Available since v3.4._
     */
    function functionDelegateCall(
        address target,
        bytes memory data,
        string memory errorMessage
    ) internal returns (bytes memory) {
        require(isContract(target), "Address: delegate call to non-contract");

        // solhint-disable-next-line avoid-low-level-calls
        (bool success, bytes memory returndata) = target.delegatecall(data);
        return _verifyCallResult(success, returndata, errorMessage);
    }

    function _verifyCallResult(
        bool success,
        bytes memory returndata,
        string memory errorMessage
    ) private pure returns (bytes memory) {
        if (success) {
            return returndata;
        } else {
            // Look for revert reason and bubble it up if present
            if (returndata.length > 0) {
                // The easiest way to bubble the revert reason is using memory via assembly

                // solhint-disable-next-line no-inline-assembly
                assembly {
                    let returndata_size := mload(returndata)
                    revert(add(32, returndata), returndata_size)
                }
            } else {
                revert(errorMessage);
            }
        }
    }
}

// File @openzeppelin/contracts/token/ERC20/[email protected]

//

pragma solidity >=0.6.0 <0.8.0;

/**
 * @dev Interface of the ERC20 standard as defined in the EIP.
 */
interface IERC20 {
    /**
     * @dev Returns the amount of tokens in existence.
     */
    function totalSupply() external view returns (uint256);

    /**
     * @dev Returns the amount of tokens owned by `account`.
     */
    function balanceOf(address account) external view returns (uint256);

    /**
     * @dev Moves `amount` tokens from the caller's account to `recipient`.
     *
     * Returns a boolean value indicating whether the operation succeeded.
     *
     * Emits a {Transfer} event.
     */
    function transfer(address recipient, uint256 amount)
        external
        returns (bool);

    /**
     * @dev Returns the remaining number of tokens that `spender` will be
     * allowed to spend on behalf of `owner` through {transferFrom}. This is
     * zero by default.
     *
     * This value changes when {approve} or {transferFrom} are called.
     */
    function allowance(address owner, address spender)
        external
        view
        returns (uint256);

    /**
     * @dev Sets `amount` as the allowance of `spender` over the caller's tokens.
     *
     * Returns a boolean value indicating whether the operation succeeded.
     *
     * IMPORTANT: Beware that changing an allowance with this method brings the risk
     * that someone may use both the old and the new allowance by unfortunate
     * transaction ordering. One possible solution to mitigate this race
     * condition is to first reduce the spender's allowance to 0 and set the
     * desired value afterwards:
     * https://github.com/ethereum/EIPs/issues/20#issuecomment-263524729
     *
     * Emits an {Approval} event.
     */
    function approve(address spender, uint256 amount) external returns (bool);

    /**
     * @dev Moves `amount` tokens from `sender` to `recipient` using the
     * allowance mechanism. `amount` is then deducted from the caller's
     * allowance.
     *
     * Returns a boolean value indicating whether the operation succeeded.
     *
     * Emits a {Transfer} event.
     */
    function transferFrom(
        address sender,
        address recipient,
        uint256 amount
    ) external returns (bool);

    /**
     * @dev Emitted when `value` tokens are moved from one account (`from`) to
     * another (`to`).
     *
     * Note that `value` may be zero.
     */
    event Transfer(address indexed from, address indexed to, uint256 value);

    /**
     * @dev Emitted when the allowance of a `spender` for an `owner` is set by
     * a call to {approve}. `value` is the new allowance.
     */
    event Approval(
        address indexed owner,
        address indexed spender,
        uint256 value
    );
}

// File @openzeppelin/contracts/utils/[email protected]

//

pragma solidity >=0.6.0 <0.8.0;

/*
 * @dev Provides information about the current execution context, including the
 * sender of the transaction and its data. While these are generally available
 * via msg.sender and msg.data, they should not be accessed in such a direct
 * manner, since when dealing with GSN meta-transactions the account sending and
 * paying for execution may not be the actual sender (as far as an application
 * is concerned).
 *
 * This contract is only required for intermediate, library-like contracts.
 */
abstract contract Context {
    function _msgSender() internal view virtual returns (address payable) {
        return msg.sender;
    }

    function _msgData() internal view virtual returns (bytes memory) {
        this; // silence state mutability warning without generating bytecode - see https://github.com/ethereum/solidity/issues/2691
        return msg.data;
    }
}

// File @openzeppelin/contracts/GSN/[email protected]

//

pragma solidity >=0.6.0 <0.8.0;

// File @openzeppelin/contracts/token/ERC20/[email protected]

//

pragma solidity >=0.6.0 <0.8.0;

/**
 * @title SafeERC20
 * @dev Wrappers around ERC20 operations that throw on failure (when the token
 * contract returns false). Tokens that return no value (and instead revert or
 * throw on failure) are also supported, non-reverting calls are assumed to be
 * successful.
 * To use this library you can add a `using SafeERC20 for IERC20;` statement to your contract,
 * which allows you to call the safe operations as `token.safeTransfer(...)`, etc.
 */
library SafeERC20 {
    using SafeMath for uint256;
    using Address for address;

    function safeTransfer(
        IERC20 token,
        address to,
        uint256 value
    ) internal {
        _callOptionalReturn(
            token,
            abi.encodeWithSelector(token.transfer.selector, to, value)
        );
    }

    function safeTransferFrom(
        IERC20 token,
        address from,
        address to,
        uint256 value
    ) internal {
        _callOptionalReturn(
            token,
            abi.encodeWithSelector(token.transferFrom.selector, from, to, value)
        );
    }

    /**
     * @dev Deprecated. This function has issues similar to the ones found in
     * {IERC20-approve}, and its usage is discouraged.
     *
     * Whenever possible, use {safeIncreaseAllowance} and
     * {safeDecreaseAllowance} instead.
     */
    function safeApprove(
        IERC20 token,
        address spender,
        uint256 value
    ) internal {
        // safeApprove should only be called when setting an initial allowance,
        // or when resetting it to zero. To increase and decrease it, use
        // 'safeIncreaseAllowance' and 'safeDecreaseAllowance'
        // solhint-disable-next-line max-line-length
        require(
            (value == 0) || (token.allowance(address(this), spender) == 0),
            "SafeERC20: approve from non-zero to non-zero allowance"
        );
        _callOptionalReturn(
            token,
            abi.encodeWithSelector(token.approve.selector, spender, value)
        );
    }

    function safeIncreaseAllowance(
        IERC20 token,
        address spender,
        uint256 value
    ) internal {
        uint256 newAllowance =
            token.allowance(address(this), spender).add(value);
        _callOptionalReturn(
            token,
            abi.encodeWithSelector(
                token.approve.selector,
                spender,
                newAllowance
            )
        );
    }

    function safeDecreaseAllowance(
        IERC20 token,
        address spender,
        uint256 value
    ) internal {
        uint256 newAllowance =
            token.allowance(address(this), spender).sub(
                value,
                "SafeERC20: decreased allowance below zero"
            );
        _callOptionalReturn(
            token,
            abi.encodeWithSelector(
                token.approve.selector,
                spender,
                newAllowance
            )
        );
    }

    /**
     * @dev Imitates a Solidity high-level call (i.e. a regular function call to a contract), relaxing the requirement
     * on the return value: the return value is optional (but if data is returned, it must not be false).
     * @param token The token targeted by the call.
     * @param data The call data (encoded using abi.encode or one of its variants).
     */
    function _callOptionalReturn(IERC20 token, bytes memory data) private {
        // We need to perform a low level call here, to bypass Solidity's return data size checking mechanism, since
        // we're implementing it ourselves. We use {Address.functionCall} to perform this call, which verifies that
        // the target address contains contract code and also asserts for success in the low-level call.

        bytes memory returndata =
            address(token).functionCall(
                data,
                "SafeERC20: low-level call failed"
            );
        if (returndata.length > 0) {
            // Return data is optional
            // solhint-disable-next-line max-line-length
            require(
                abi.decode(returndata, (bool)),
                "SafeERC20: ERC20 operation did not succeed"
            );
        }
    }
}

// File @openzeppelin/contracts/utils/[email protected]

//

pragma solidity >=0.6.0 <0.8.0;

/**
 * @dev Contract module that helps prevent reentrant calls to a function.
 *
 * Inheriting from `ReentrancyGuard` will make the {nonReentrant} modifier
 * available, which can be applied to functions to make sure there are no nested
 * (reentrant) calls to them.
 *
 * Note that because there is a single `nonReentrant` guard, functions marked as
 * `nonReentrant` may not call one another. This can be worked around by making
 * those functions `private`, and then adding `external` `nonReentrant` entry
 * points to them.
 *
 * TIP: If you would like to learn more about reentrancy and alternative ways
 * to protect against it, check out our blog post
 * https://blog.openzeppelin.com/reentrancy-after-istanbul/[Reentrancy After Istanbul].
 */
abstract contract ReentrancyGuard {
    // Booleans are more expensive than uint256 or any type that takes up a full
    // word because each write operation emits an extra SLOAD to first read the
    // slot's contents, replace the bits taken up by the boolean, and then write
    // back. This is the compiler's defense against contract upgrades and
    // pointer aliasing, and it cannot be disabled.

    // The values being non-zero value makes deployment a bit more expensive,
    // but in exchange the refund on every call to nonReentrant will be lower in
    // amount. Since refunds are capped to a percentage of the total
    // transaction's gas, it is best to keep them low in cases like this one, to
    // increase the likelihood of the full refund coming into effect.
    uint256 private constant _NOT_ENTERED = 1;
    uint256 private constant _ENTERED = 2;

    uint256 private _status;

    constructor() internal {
        _status = _NOT_ENTERED;
    }

    /**
     * @dev Prevents a contract from calling itself, directly or indirectly.
     * Calling a `nonReentrant` function from another `nonReentrant`
     * function is not supported. It is possible to prevent this from happening
     * by making the `nonReentrant` function external, and make it call a
     * `private` function that does the actual work.
     */
    modifier nonReentrant() {
        // On the first call to nonReentrant, _notEntered will be true
        require(_status != _ENTERED, "ReentrancyGuard: reentrant call");

        // Any calls to nonReentrant after this point will fail
        _status = _ENTERED;

        _;

        // By storing the original value once again, a refund is triggered (see
        // https://eips.ethereum.org/EIPS/eip-2200)
        _status = _NOT_ENTERED;
    }
}

// File contracts/StakingToken.sol

//
pragma solidity >=0.6.0 <0.7.0;

// import "@openzeppelin/contracts/token/ERC20/ERC20.sol";
// import "@openzeppelin/contracts/token/ERC20/ERC20Capped.sol";

contract StakingToken is Context, IERC20, ReentrancyGuard {
    using Address for address;
    using SafeMath for uint256;
    using SafeERC20 for IERC20;

    uint256 private _totalSupply;
    string private _name;
    string private _symbol;
    uint8 private _decimals;
    uint256 private _cap;
    uint256 private _softcap;
    address private _owner; // the supervisor with total authority
    address private _mint_account; // account which is allowed to mint new tokens

    uint256 public epoch; // the timestamp this token becomes alive

    mapping(address => uint256) internal _balances;
    mapping(address => uint256) internal _reserved_balances;
    mapping(address => mapping(address => uint256)) internal _allowances;

    /// @notice A record of each accounts delegate
    mapping(address => address) public delegates;

    /// @notice A checkpoint for marking number of votes from a given block
    struct Checkpoint {
        uint256 fromBlock;
        uint256 votes;
    }

    /// @notice A record of votes checkpoints for each account, by index
    mapping(address => mapping(uint256 => Checkpoint)) public checkpoints;

    /// @notice The number of checkpoints for each account
    mapping(address => uint256) public numCheckpoints;

    event BalanceReserved(address who, uint256 amount);
    event BalanceUnreserved(address who, uint256 amount);

    /// @notice An event thats emitted when an account changes its delegate
    event DelegateChanged(
        address indexed delegator,
        address indexed fromDelegate,
        address indexed toDelegate
    );

    /// @notice An event thats emitted when a delegate account's vote balance changes
    event DelegateVotesChanged(
        address indexed delegate,
        uint256 previousBalance,
        uint256 newBalance
    );

    constructor(
        string memory name,
        string memory symbol,
        uint8 decimals,
        uint256 softcap,
        uint256 cap
    ) public {
        _mint_account = _msgSender();
        _owner = _msgSender();
        _name = name;
        _symbol = symbol;
        _decimals = decimals;
        _softcap = softcap;
        _cap = cap;
    }

    modifier isAlive {
        require(epoch > 0 && block.timestamp > epoch);
        _;
    }

    modifier owner_only {
        require(_msgSender() == _owner, "StakingToken: Owner only");
        _;
    }

    modifier mint_auth_required {
        require(
            _msgSender() == _mint_account || _msgSender() == _owner,
            "StakingToken: Invalid mint request"
        );
        _;
    }

    function transfer_ownership(address new_owner)
        public
        owner_only
        nonReentrant
    {
        _owner = new_owner;
    }

    function owner() public view returns (address) {
        return _owner;
    }

    function set_epoch(uint256 ts) public owner_only nonReentrant {
        epoch = ts;
    }

    function mint_account() public view returns (address) {
        return _mint_account;
    }

    function name() public view returns (string memory) {
        return _name;
    }

    function symbol() public view returns (string memory) {
        return _symbol;
    }

    function decimals() public view returns (uint8) {
        return _decimals;
    }

    function totalSupply() public view override returns (uint256) {
        return _totalSupply;
    }

    function cap() public view returns (uint256) {
        return _cap;
    }

    function softCap() public view returns (uint256) {
        return _softcap;
    }

    function setSoftCap(uint256 n) public owner_only nonReentrant {
        require(n <= _cap, "StakingToken: softcap overflows cap");
        require(
            n >= _totalSupply,
            "StakingToken: softcap must be higher than total supply"
        );
        _softcap = n;
    }

    function balanceOf(address account)
        public
        view
        override
        returns (uint256 free)
    {
        return _balances[account];
    }

    function setName(string memory n) public owner_only {
        _name = n;
    }

    function setSymbol(string memory sym) public owner_only {
        _symbol = sym;
    }

    function transfer(address recipient, uint256 amount)
        public
        virtual
        override
        nonReentrant
        returns (bool)
    {
        _transfer(_msgSender(), recipient, amount);
        return true;
    }

    function allowance(address account_owner, address spender)
        public
        view
        virtual
        override
        returns (uint256)
    {
        return _allowances[account_owner][spender];
    }

    function approve(address spender, uint256 amount)
        public
        virtual
        override
        nonReentrant
        returns (bool)
    {
        _approve(_msgSender(), spender, amount);
        return true;
    }

    function transferFrom(
        address sender,
        address recipient,
        uint256 amount
    ) public virtual override nonReentrant returns (bool) {
        _transfer(sender, recipient, amount);
        _approve(
            sender,
            _msgSender(),
            _allowances[sender][_msgSender()].sub(
                amount,
                "ERC20: transfer amount exceeds allowance"
            )
        );
        return true;
    }

    function increaseAllowance(address spender, uint256 addedValue)
        public
        virtual
        nonReentrant
        returns (bool)
    {
        _approve(
            _msgSender(),
            spender,
            _allowances[_msgSender()][spender].add(addedValue)
        );
        return true;
    }

    function decreaseAllowance(address spender, uint256 subtractedValue)
        public
        virtual
        nonReentrant
        returns (bool)
    {
        _approve(
            _msgSender(),
            spender,
            _allowances[_msgSender()][spender].sub(
                subtractedValue,
                "ERC20: decreased allowance below zero"
            )
        );
        return true;
    }

    function mint(uint256 amount)
        public
        virtual
        nonReentrant
        mint_auth_required
        returns (bool)
    {
        _mint(_msgSender(), amount);
        return true;
    }

    function burn(uint256 amount) public virtual nonReentrant returns (bool) {
        _burn(_msgSender(), amount);
        return true;
    }

    function burnFrom(address account, uint256 amount)
        public
        virtual
        nonReentrant
    {
        uint256 decreasedAllowance =
            allowance(account, _msgSender()).sub(
                amount,
                "ERC20: burn amount exceeds allowance"
            );

        _approve(account, _msgSender(), decreasedAllowance);
        _burn(account, amount);
    }

    function _transfer(
        address sender,
        address recipient,
        uint256 amount
    ) internal virtual {
        require(sender != address(0), "ERC20: transfer from the zero address");
        require(recipient != address(0), "ERC20: transfer to the zero address");

        _beforeTokenTransfer(sender, recipient, amount);

        _balances[sender] = _balances[sender].sub(
            amount,
            "ERC20: transfer amount exceeds balance"
        );
        _balances[recipient] = _balances[recipient].add(amount);
        emit Transfer(sender, recipient, amount);

        _afterTokenTransfer(sender, recipient, amount);
    }

    function _mint(address account, uint256 amount) internal virtual {
        require(account != address(0), "ERC20: mint to the zero address");

        _beforeTokenTransfer(address(0), account, amount);

        _totalSupply = _totalSupply.add(amount);
        _balances[account] = _balances[account].add(amount);
        emit Transfer(address(0), account, amount);

        _afterTokenTransfer(address(0), account, amount);
    }

    function _burn(address account, uint256 amount) internal virtual {
        require(account != address(0), "ERC20: burn from the zero address");

        _beforeTokenTransfer(account, address(0), amount);

        _balances[account] = _balances[account].sub(
            amount,
            "ERC20: burn amount exceeds balance"
        );
        _totalSupply = _totalSupply.sub(amount);
        emit Transfer(account, address(0), amount);

        _afterTokenTransfer(account, address(0), amount);
    }

    function _approve(
        address account_owner,
        address spender,
        uint256 amount
    ) internal virtual {
        require(
            account_owner != address(0),
            "ERC20: approve from the zero address"
        );
        require(spender != address(0), "ERC20: approve to the zero address");

        _allowances[account_owner][spender] = amount;
        emit Approval(account_owner, spender, amount);
    }

    function _setupDecimals(uint8 decimals_) internal {
        _decimals = decimals_;
    }

    function _beforeTokenTransfer(
        address from,
        address to,
        uint256 amount
    ) internal virtual {
        if (from == address(0)) {
            // When minting tokens
            uint256 newSupply = totalSupply().add(amount);
            require(
                newSupply <= _softcap && newSupply <= _cap,
                "ERC20Capped: cap exceeded"
            );
        }
    }

    function _afterTokenTransfer(
        address from,
        address to,
        uint256 amount
    ) internal virtual {
        _moveDelegates(from, to, amount);
    }

    // end of ERC20 implementation

    function _reserve(address who, uint256 amount) internal returns (bool) {
        // make sure 'who' has enough tokens in his pocket
        require(
            _balances[who] >= amount,
            "StakingToken: user's free balance is not enough"
        );

        // move from balance into reserved_balance
        _balances[who] = _balances[who].sub(amount);
        _reserved_balances[who] = _reserved_balances[who].add(amount);

        emit BalanceReserved(who, amount);

        return true;
    }

    function _unreserve(address who, uint256 amount) internal returns (bool) {
        require(
            _reserved_balances[who] >= amount,
            "StakingToken: not enough reserved balance"
        );

        // move from reserved_balance into balance
        _reserved_balances[who] = _reserved_balances[who].sub(amount);
        _balances[who] = _balances[who].add(amount);

        emit BalanceUnreserved(who, amount);

        return true;
    }

    function reservedOf(address account) public view returns (uint256) {
        return _reserved_balances[account];
    }

    function actualBalanceOf(address account)
        public
        view
        returns (uint256 free_balance, uint256 reserved_balance)
    {
        return (_balances[account], _reserved_balances[account]);
    }

    function reserve_from(address who, uint256 amount)
        public
        mint_auth_required
        nonReentrant
        returns (bool)
    {
        return _reserve(who, amount);
    }

    function unreserve_from(address who, uint256 amount)
        public
        mint_auth_required
        nonReentrant
        returns (bool)
    {
        return _unreserve(who, amount);
    }

    function set_mint_account(address account) public owner_only nonReentrant {
        _mint_account = account;
    }

    function _moveDelegates(
        address srcRep,
        address dstRep,
        uint256 amount
    ) internal {
        if (srcRep != dstRep && amount > 0) {
            if (srcRep != address(0)) {
                uint256 srcRepNum = numCheckpoints[srcRep];
                uint256 srcRepOld =
                    srcRepNum > 0
                        ? checkpoints[srcRep][srcRepNum - 1].votes
                        : 0;
                uint256 srcRepNew = srcRepOld.sub(amount);
                _writeCheckpoint(srcRep, srcRepNum, srcRepOld, srcRepNew);
            }

            if (dstRep != address(0)) {
                uint256 dstRepNum = numCheckpoints[dstRep];
                uint256 dstRepOld =
                    dstRepNum > 0
                        ? checkpoints[dstRep][dstRepNum - 1].votes
                        : 0;
                uint256 dstRepNew = dstRepOld.add(amount);
                _writeCheckpoint(dstRep, dstRepNum, dstRepOld, dstRepNew);
            }
        }
    }

    function _writeCheckpoint(
        address delegatee,
        uint256 nCheckpoints,
        uint256 oldVotes,
        uint256 newVotes
    ) internal {
        if (
            nCheckpoints > 0 &&
            checkpoints[delegatee][nCheckpoints - 1].fromBlock == block.number
        ) {
            checkpoints[delegatee][nCheckpoints - 1].votes = newVotes;
        } else {
            checkpoints[delegatee][nCheckpoints] = Checkpoint(
                block.number,
                newVotes
            );
            numCheckpoints[delegatee] = nCheckpoints + 1;
        }

        emit DelegateVotesChanged(delegatee, oldVotes, newVotes);
    }

    function getChainId() internal pure returns (uint256) {
        uint256 chainId;
        assembly {
            chainId := chainid()
        }
        return chainId;
    }

    /**
     * @notice Delegate votes from `msg.sender` to `delegatee`
     * @param delegatee The address to delegate votes to
     */
    function delegate(address delegatee) public nonReentrant {
        return _delegate(msg.sender, delegatee);
    }

    /**
     * @notice Gets the current votes balance for `account`
     * @param account The address to get votes balance
     * @return The number of current votes for `account`
     */
    function getCurrentVotes(address account) external view returns (uint256) {
        uint256 nCheckpoints = numCheckpoints[account];
        return
            nCheckpoints > 0 ? checkpoints[account][nCheckpoints - 1].votes : 0;
    }

    /**
     * @notice Determine the prior number of votes for an account as of a block number
     * @dev Block number must be a finalized block or else this function will revert to prevent misinformation.
     * @param account The address of the account to check
     * @param blockNumber The block number to get the vote balance at
     * @return The number of votes the account had as of the given block
     */
    function getPriorVotes(address account, uint256 blockNumber)
        public
        view
        returns (uint256)
    {
        require(blockNumber < block.number, "StakingToken: not yet determined");

        uint256 nCheckpoints = numCheckpoints[account];
        if (nCheckpoints == 0) {
            return 0;
        }

        // First check most recent balance
        if (checkpoints[account][nCheckpoints - 1].fromBlock <= blockNumber) {
            return checkpoints[account][nCheckpoints - 1].votes;
        }

        // Next check implicit zero balance
        if (checkpoints[account][0].fromBlock > blockNumber) {
            return 0;
        }

        uint256 lower = 0;
        uint256 upper = nCheckpoints - 1;
        while (upper > lower) {
            uint256 center = upper - (upper - lower) / 2; // ceil, avoiding overflow
            Checkpoint memory cp = checkpoints[account][center];
            if (cp.fromBlock == blockNumber) {
                return cp.votes;
            } else if (cp.fromBlock < blockNumber) {
                lower = center;
            } else {
                upper = center - 1;
            }
        }
        return checkpoints[account][lower].votes;
    }

    function _delegate(address delegator, address delegatee) internal {
        address currentDelegate = delegates[delegator];
        uint256 delegatorBalance = _balances[delegator];
        delegates[delegator] = delegatee;

        emit DelegateChanged(delegator, currentDelegate, delegatee);

        _moveDelegates(currentDelegate, delegatee, delegatorBalance);
    }

    function mint_and_lock(
        address to_whom,
        uint256 amount,
        uint256 lockspan,
        uint256 frozen_hell
    ) public mint_auth_required nonReentrant {
        require(llocks[to_whom].remains_in_lock == 0);

        LinearLockWithFrozenHell storage lk = llocks[to_whom];

        lk.total_amount = amount;
        lk.lock_span = lockspan;
        lk.frozen_hell = frozen_hell;
        lk.created_timestamp = block.timestamp;
        lk.remains_in_lock = amount;
        lk.latest_claim = block.timestamp;

        _mint(address(this), amount);
        _transferToReserved(address(this), to_whom, amount);
    }

    function can_claim() public view isAlive returns (uint256) {
        if (_reserved_balances[_msgSender()] == 0) {
            return 0;
        }
        if (llocks[_msgSender()].remains_in_lock == 0) {
            return 0;
        }

        LinearLockWithFrozenHell storage llwf = llocks[_msgSender()];

        uint256 begins = _releaseBegins(_msgSender());
        if (block.timestamp < begins) {
            return 0;
        }

        uint256 released_span = block.timestamp - begins;
        if (llwf.latest_claim > begins) {
            released_span = block.timestamp - llwf.latest_claim;
        }
        uint256 released_amount =
            llwf.total_amount.div(llwf.lock_span).mul(released_span);

        return released_amount;
    }

    function claim() public nonReentrant isAlive {
        require(
            _reserved_balances[_msgSender()] > 0,
            "StakingToken::claim: sender has no reserved balance"
        );
        require(
            llocks[_msgSender()].remains_in_lock > 0,
            "StakingToken::claim: sender has no locks"
        );

        LinearLockWithFrozenHell storage llwf = llocks[_msgSender()];

        uint256 begins = _releaseBegins(_msgSender());
        require(
            block.timestamp > begins,
            "StakingToken::claim: release has not begin yet"
        );

        uint256 released_span = block.timestamp - begins;
        if (llwf.latest_claim > begins) {
            released_span = block.timestamp - llwf.latest_claim;
        }
        uint256 released_amount =
            llwf.total_amount.div(llwf.lock_span).mul(released_span);

        if (llwf.remains_in_lock <= released_amount) {
            released_amount = llwf.remains_in_lock;
            llwf.remains_in_lock = 0;
        } else {
            llwf.remains_in_lock = llwf.remains_in_lock.sub(released_amount);
        }

        llwf.latest_claim = block.timestamp;

        _unreserve(_msgSender(), released_amount);
    }

    struct LinearLockWithFrozenHell {
        uint256 total_amount;
        uint256 lock_span;
        uint256 frozen_hell;
        uint256 latest_claim;
        uint256 created_timestamp;
        uint256 remains_in_lock;
    }

    mapping(address => LinearLockWithFrozenHell) public llocks;

    function _transferToReserved(
        address sender,
        address recipient,
        uint256 amount
    ) internal virtual {
        require(sender != address(0), "ERC20: transfer from the zero address");
        require(recipient != address(0), "ERC20: transfer to the zero address");

        _beforeTokenTransfer(sender, recipient, amount);

        _balances[sender] = _balances[sender].sub(
            amount,
            "ERC20: transfer amount exceeds balance"
        );
        _reserved_balances[recipient] = _reserved_balances[recipient].add(
            amount
        );

        emit Transfer(sender, recipient, amount);
        emit BalanceReserved(recipient, amount);

        _afterTokenTransfer(sender, recipient, amount);
    }

    function _releaseBegins(address who) internal view returns (uint256) {
        LinearLockWithFrozenHell storage llwf = llocks[who];
        uint256 begins = 0;
        if (llwf.created_timestamp > epoch) {
            begins = llwf.created_timestamp;
        } else {
            begins = epoch;
        }
        if (llwf.frozen_hell > 0) {
            begins = begins.add(llwf.frozen_hell);
        }
        return begins;
    }
}

Contract ABI

[{"inputs":[{"internalType":"string","name":"name","type":"string"},{"internalType":"string","name":"symbol","type":"string"},{"internalType":"uint8","name":"decimals","type":"uint8"},{"internalType":"uint256","name":"softcap","type":"uint256"},{"internalType":"uint256","name":"cap","type":"uint256"}],"stateMutability":"nonpayable","type":"constructor"},{"anonymous":false,"inputs":[{"indexed":true,"internalType":"address","name":"owner","type":"address"},{"indexed":true,"internalType":"address","name":"spender","type":"address"},{"indexed":false,"internalType":"uint256","name":"value","type":"uint256"}],"name":"Approval","type":"event"},{"anonymous":false,"inputs":[{"indexed":false,"internalType":"address","name":"who","type":"address"},{"indexed":false,"internalType":"uint256","name":"amount","type":"uint256"}],"name":"BalanceReserved","type":"event"},{"anonymous":false,"inputs":[{"indexed":false,"internalType":"address","name":"who","type":"address"},{"indexed":false,"internalType":"uint256","name":"amount","type":"uint256"}],"name":"BalanceUnreserved","type":"event"},{"anonymous":false,"inputs":[{"indexed":true,"internalType":"address","name":"delegator","type":"address"},{"indexed":true,"internalType":"address","name":"fromDelegate","type":"address"},{"indexed":true,"internalType":"address","name":"toDelegate","type":"address"}],"name":"DelegateChanged","type":"event"},{"anonymous":false,"inputs":[{"indexed":true,"internalType":"address","name":"delegate","type":"address"},{"indexed":false,"internalType":"uint256","name":"previousBalance","type":"uint256"},{"indexed":false,"internalType":"uint256","name":"newBalance","type":"uint256"}],"name":"DelegateVotesChanged","type":"event"},{"anonymous":false,"inputs":[{"indexed":true,"internalType":"address","name":"from","type":"address"},{"indexed":true,"internalType":"address","name":"to","type":"address"},{"indexed":false,"internalType":"uint256","name":"value","type":"uint256"}],"name":"Transfer","type":"event"},{"inputs":[{"internalType":"address","name":"account","type":"address"}],"name":"actualBalanceOf","outputs":[{"internalType":"uint256","name":"free_balance","type":"uint256"},{"internalType":"uint256","name":"reserved_balance","type":"uint256"}],"stateMutability":"view","type":"function"},{"inputs":[{"internalType":"address","name":"account_owner","type":"address"},{"internalType":"address","name":"spender","type":"address"}],"name":"allowance","outputs":[{"internalType":"uint256","name":"","type":"uint256"}],"stateMutability":"view","type":"function"},{"inputs":[{"internalType":"address","name":"spender","type":"address"},{"internalType":"uint256","name":"amount","type":"uint256"}],"name":"approve","outputs":[{"internalType":"bool","name":"","type":"bool"}],"stateMutability":"nonpayable","type":"function"},{"inputs":[{"internalType":"address","name":"account","type":"address"}],"name":"balanceOf","outputs":[{"internalType":"uint256","name":"free","type":"uint256"}],"stateMutability":"view","type":"function"},{"inputs":[{"internalType":"uint256","name":"amount","type":"uint256"}],"name":"burn","outputs":[{"internalType":"bool","name":"","type":"bool"}],"stateMutability":"nonpayable","type":"function"},{"inputs":[{"internalType":"address","name":"account","type":"address"},{"internalType":"uint256","name":"amount","type":"uint256"}],"name":"burnFrom","outputs":[],"stateMutability":"nonpayable","type":"function"},{"inputs":[],"name":"can_claim","outputs":[{"internalType":"uint256","name":"","type":"uint256"}],"stateMutability":"view","type":"function"},{"inputs":[],"name":"cap","outputs":[{"internalType":"uint256","name":"","type":"uint256"}],"stateMutability":"view","type":"function"},{"inputs":[{"internalType":"address","name":"","type":"address"},{"internalType":"uint256","name":"","type":"uint256"}],"name":"checkpoints","outputs":[{"internalType":"uint256","name":"fromBlock","type":"uint256"},{"internalType":"uint256","name":"votes","type":"uint256"}],"stateMutability":"view","type":"function"},{"inputs":[],"name":"claim","outputs":[],"stateMutability":"nonpayable","type":"function"},{"inputs":[],"name":"decimals","outputs":[{"internalType":"uint8","name":"","type":"uint8"}],"stateMutability":"view","type":"function"},{"inputs":[{"internalType":"address","name":"spender","type":"address"},{"internalType":"uint256","name":"subtractedValue","type":"uint256"}],"name":"decreaseAllowance","outputs":[{"internalType":"bool","name":"","type":"bool"}],"stateMutability":"nonpayable","type":"function"},{"inputs":[{"internalType":"address","name":"delegatee","type":"address"}],"name":"delegate","outputs":[],"stateMutability":"nonpayable","type":"function"},{"inputs":[{"internalType":"address","name":"","type":"address"}],"name":"delegates","outputs":[{"internalType":"address","name":"","type":"address"}],"stateMutability":"view","type":"function"},{"inputs":[],"name":"epoch","outputs":[{"internalType":"uint256","name":"","type":"uint256"}],"stateMutability":"view","type":"function"},{"inputs":[{"internalType":"address","name":"account","type":"address"}],"name":"getCurrentVotes","outputs":[{"internalType":"uint256","name":"","type":"uint256"}],"stateMutability":"view","type":"function"},{"inputs":[{"internalType":"address","name":"account","type":"address"},{"internalType":"uint256","name":"blockNumber","type":"uint256"}],"name":"getPriorVotes","outputs":[{"internalType":"uint256","name":"","type":"uint256"}],"stateMutability":"view","type":"function"},{"inputs":[{"internalType":"address","name":"spender","type":"address"},{"internalType":"uint256","name":"addedValue","type":"uint256"}],"name":"increaseAllowance","outputs":[{"internalType":"bool","name":"","type":"bool"}],"stateMutability":"nonpayable","type":"function"},{"inputs":[{"internalType":"address","name":"","type":"address"}],"name":"llocks","outputs":[{"internalType":"uint256","name":"total_amount","type":"uint256"},{"internalType":"uint256","name":"lock_span","type":"uint256"},{"internalType":"uint256","name":"frozen_hell","type":"uint256"},{"internalType":"uint256","name":"latest_claim","type":"uint256"},{"internalType":"uint256","name":"created_timestamp","type":"uint256"},{"internalType":"uint256","name":"remains_in_lock","type":"uint256"}],"stateMutability":"view","type":"function"},{"inputs":[{"internalType":"uint256","name":"amount","type":"uint256"}],"name":"mint","outputs":[{"internalType":"bool","name":"","type":"bool"}],"stateMutability":"nonpayable","type":"function"},{"inputs":[],"name":"mint_account","outputs":[{"internalType":"address","name":"","type":"address"}],"stateMutability":"view","type":"function"},{"inputs":[{"internalType":"address","name":"to_whom","type":"address"},{"internalType":"uint256","name":"amount","type":"uint256"},{"internalType":"uint256","name":"lockspan","type":"uint256"},{"internalType":"uint256","name":"frozen_hell","type":"uint256"}],"name":"mint_and_lock","outputs":[],"stateMutability":"nonpayable","type":"function"},{"inputs":[],"name":"name","outputs":[{"internalType":"string","name":"","type":"string"}],"stateMutability":"view","type":"function"},{"inputs":[{"internalType":"address","name":"","type":"address"}],"name":"numCheckpoints","outputs":[{"internalType":"uint256","name":"","type":"uint256"}],"stateMutability":"view","type":"function"},{"inputs":[],"name":"owner","outputs":[{"internalType":"address","name":"","type":"address"}],"stateMutability":"view","type":"function"},{"inputs":[{"internalType":"address","name":"who","type":"address"},{"internalType":"uint256","name":"amount","type":"uint256"}],"name":"reserve_from","outputs":[{"internalType":"bool","name":"","type":"bool"}],"stateMutability":"nonpayable","type":"function"},{"inputs":[{"internalType":"address","name":"account","type":"address"}],"name":"reservedOf","outputs":[{"internalType":"uint256","name":"","type":"uint256"}],"stateMutability":"view","type":"function"},{"inputs":[{"internalType":"string","name":"n","type":"string"}],"name":"setName","outputs":[],"stateMutability":"nonpayable","type":"function"},{"inputs":[{"internalType":"uint256","name":"n","type":"uint256"}],"name":"setSoftCap","outputs":[],"stateMutability":"nonpayable","type":"function"},{"inputs":[{"internalType":"string","name":"sym","type":"string"}],"name":"setSymbol","outputs":[],"stateMutability":"nonpayable","type":"function"},{"inputs":[{"internalType":"uint256","name":"ts","type":"uint256"}],"name":"set_epoch","outputs":[],"stateMutability":"nonpayable","type":"function"},{"inputs":[{"internalType":"address","name":"account","type":"address"}],"name":"set_mint_account","outputs":[],"stateMutability":"nonpayable","type":"function"},{"inputs":[],"name":"softCap","outputs":[{"internalType":"uint256","name":"","type":"uint256"}],"stateMutability":"view","type":"function"},{"inputs":[],"name":"symbol","outputs":[{"internalType":"string","name":"","type":"string"}],"stateMutability":"view","type":"function"},{"inputs":[],"name":"totalSupply","outputs":[{"internalType":"uint256","name":"","type":"uint256"}],"stateMutability":"view","type":"function"},{"inputs":[{"internalType":"address","name":"recipient","type":"address"},{"internalType":"uint256","name":"amount","type":"uint256"}],"name":"transfer","outputs":[{"internalType":"bool","name":"","type":"bool"}],"stateMutability":"nonpayable","type":"function"},{"inputs":[{"internalType":"address","name":"sender","type":"address"},{"internalType":"address","name":"recipient","type":"address"},{"internalType":"uint256","name":"amount","type":"uint256"}],"name":"transferFrom","outputs":[{"internalType":"bool","name":"","type":"bool"}],"stateMutability":"nonpayable","type":"function"},{"inputs":[{"internalType":"address","name":"new_owner","type":"address"}],"name":"transfer_ownership","outputs":[],"stateMutability":"nonpayable","type":"function"},{"inputs":[{"internalType":"address","name":"who","type":"address"},{"internalType":"uint256","name":"amount","type":"uint256"}],"name":"unreserve_from","outputs":[{"internalType":"bool","name":"","type":"bool"}],"stateMutability":"nonpayable","type":"function"}]

60806040523480156200001157600080fd5b506040516200322738038062003227833981810160405260a08110156200003757600080fd5b81019080805160405193929190846401000000008211156200005857600080fd5b9083019060208201858111156200006e57600080fd5b82516401000000008111828201881017156200008957600080fd5b82525081516020918201929091019080838360005b83811015620000b85781810151838201526020016200009e565b50505050905090810190601f168015620000e65780820380516001836020036101000a031916815260200191505b50604052602001805160405193929190846401000000008211156200010a57600080fd5b9083019060208201858111156200012057600080fd5b82516401000000008111828201881017156200013b57600080fd5b82525081516020918201929091019080838360005b838110156200016a57818101518382015260200162000150565b50505050905090810190601f168015620001985780820380516001836020036101000a031916815260200191505b5060409081526020820151908201516060909201516001600055909350909150620001c26200025c565b600880546001600160a01b0319166001600160a01b0392909216919091179055620001ec6200025c565b600780546001600160a01b0319166001600160a01b039290921691909117905584516200022190600290602088019062000260565b5083516200023790600390602087019062000260565b506004805460ff191660ff949094169390931790925560065560055550620002fc9050565b3390565b828054600181600116156101000203166002900490600052602060002090601f016020900481019282601f10620002a357805160ff1916838001178555620002d3565b82800160010185558215620002d3579182015b82811115620002d3578251825591602001919060010190620002b6565b50620002e1929150620002e5565b5090565b5b80821115620002e15760008155600101620002e6565b612f1b806200030c6000396000f3fe608060405234801561001057600080fd5b506004361061022d5760003560e01c80638da5cb5b1161013b578063b84c8246116100b8578063d5cf5c721161007c578063d5cf5c7214610836578063dd62ed3e14610853578063de3ff0f314610881578063e37e1747146108b9578063f0350c04146108df5761022d565b8063b84c824614610694578063c47f002714610738578063c9322adb146107dc578063cbd0650c14610802578063cc33aa211461082e5761022d565b80639e961e98116100ff5780639e961e98146105a0578063a0712d68146105f9578063a457c2d714610616578063a9059cbb14610642578063b4b5ea571461066e5761022d565b80638da5cb5b14610578578063900cf0cf14610580578063906a26e01461058857806395d89b411461059057806398063ecd146105985761022d565b806342966c68116101c95780636fcfff451161018d5780636fcfff45146104a857806370a08231146104ce578063711a6f7a146104f4578063782d6fe11461052057806379cc67901461054c5761022d565b806342966c68146103fc5780634e71d92d14610419578063587cde1e146104235780635c19a95c146104655780635fd257681461048b5761022d565b806306fdde0314610232578063095ea7b3146102af5780630cdfebfa146102ef57806317a950ac1461033457806318160ddd1461035a57806323b872dd14610374578063313ce567146103aa578063355274ea146103c857806339509351146103d0575b600080fd5b61023a610905565b6040805160208082528351818301528351919283929083019185019080838360005b8381101561027457818101518382015260200161025c565b50505050905090810190601f1680156102a15780820380516001836020036101000a031916815260200191505b509250505060405180910390f35b6102db600480360360408110156102c557600080fd5b506001600160a01b038135169060200135610999565b604080519115158252519081900360200190f35b61031b6004803603604081101561030557600080fd5b506001600160a01b038135169060200135610a05565b6040805192835260208301919091528051918290030190f35b61031b6004803603602081101561034a57600080fd5b50356001600160a01b0316610a29565b610362610a51565b60408051918252519081900360200190f35b6102db6004803603606081101561038a57600080fd5b506001600160a01b03813581169160208101359091169060400135610a57565b6103b2610b2d565b6040805160ff9092168252519081900360200190f35b610362610b36565b6102db600480360360408110156103e657600080fd5b506001600160a01b038135169060200135610b3c565b6102db6004803603602081101561041257600080fd5b5035610bd5565b610421610c3f565b005b6104496004803603602081101561043957600080fd5b50356001600160a01b0316610e99565b604080516001600160a01b039092168252519081900360200190f35b6104216004803603602081101561047b57600080fd5b50356001600160a01b0316610eb4565b610421600480360360208110156104a157600080fd5b5035610f11565b610362600480360360208110156104be57600080fd5b50356001600160a01b0316610fbe565b610362600480360360208110156104e457600080fd5b50356001600160a01b0316610fd0565b6102db6004803603604081101561050a57600080fd5b506001600160a01b038135169060200135610feb565b6103626004803603604081101561053657600080fd5b506001600160a01b0381351690602001356110cd565b6104216004803603604081101561056257600080fd5b506001600160a01b0381351690602001356112a6565b610449611353565b610362611362565b610362611368565b61023a61136e565b6103626113cf565b6105c6600480360360208110156105b657600080fd5b50356001600160a01b03166114eb565b604080519687526020870195909552858501939093526060850191909152608084015260a0830152519081900360c00190f35b6102db6004803603602081101561060f57600080fd5b5035611520565b6102db6004803603604081101561062c57600080fd5b506001600160a01b0381351690602001356115fc565b6102db6004803603604081101561065857600080fd5b506001600160a01b0381351690602001356116af565b6103626004803603602081101561068457600080fd5b50356001600160a01b031661170e565b610421600480360360208110156106aa57600080fd5b810190602081018135600160201b8111156106c457600080fd5b8201836020820111156106d657600080fd5b803590602001918460018302840111600160201b831117156106f757600080fd5b91908080601f016020809104026020016040519081016040528093929190818152602001838380828437600092019190915250929550611766945050505050565b6104216004803603602081101561074e57600080fd5b810190602081018135600160201b81111561076857600080fd5b82018360208201111561077a57600080fd5b803590602001918460018302840111600160201b8311171561079b57600080fd5b91908080601f0160208091040260200160405190810160405280939291908181526020018383808284376000920191909152509295506117da945050505050565b610362600480360360208110156107f257600080fd5b50356001600160a01b031661184a565b6102db6004803603604081101561081857600080fd5b506001600160a01b038135169060200135611865565b61044961193b565b6104216004803603602081101561084c57600080fd5b503561194a565b6103626004803603604081101561086957600080fd5b506001600160a01b0381358116916020013516611a7e565b6104216004803603608081101561089757600080fd5b506001600160a01b038135169060208101359060408101359060600135611aa9565b610421600480360360208110156108cf57600080fd5b50356001600160a01b0316611be9565b610421600480360360208110156108f557600080fd5b50356001600160a01b0316611cb3565b60028054604080516020601f600019610100600187161502019094168590049384018190048102820181019092528281526060939092909183018282801561098e5780601f106109635761010080835404028352916020019161098e565b820191906000526020600020905b81548152906001019060200180831161097157829003601f168201915b505050505090505b90565b6000600260005414156109e1576040805162461bcd60e51b815260206004820152601f6024820152600080516020612bc4833981519152604482015290519081900360640190fd5b60026000556109f86109f1611d7d565b8484611d81565b5060018060005592915050565b600e6020908152600092835260408084209091529082529020805460019091015482565b6001600160a01b03166000908152600a6020908152604080832054600b909252909120549091565b60015490565b600060026000541415610a9f576040805162461bcd60e51b815260206004820152601f6024820152600080516020612bc4833981519152604482015290519081900360640190fd5b6002600055610aaf848484611e6d565b610b1f84610abb611d7d565b610b1a85604051806060016040528060288152602001612d1f602891396001600160a01b038a166000908152600c6020526040812090610af9611d7d565b6001600160a01b031681526020810191909152604001600020549190611fc3565b611d81565b506001806000559392505050565b60045460ff1690565b60055490565b600060026000541415610b84576040805162461bcd60e51b815260206004820152601f6024820152600080516020612bc4833981519152604482015290519081900360640190fd5b60026000556109f8610b94611d7d565b84610b1a85600c6000610ba5611d7d565b6001600160a01b03908116825260208083019390935260409182016000908120918c16815292529020549061205a565b600060026000541415610c1d576040805162461bcd60e51b815260206004820152601f6024820152600080516020612bc4833981519152604482015290519081900360640190fd5b6002600055610c33610c2d611d7d565b836120b4565b50600180600055919050565b60026000541415610c85576040805162461bcd60e51b815260206004820152601f6024820152600080516020612bc4833981519152604482015290519081900360640190fd5b600260005560095415801590610c9c575060095442115b610ca557600080fd5b6000600b6000610cb3611d7d565b6001600160a01b03166001600160a01b031681526020019081526020016000205411610d105760405162461bcd60e51b8152600401808060200182810382526033815260200180612d476033913960400191505060405180910390fd5b600060106000610d1e611d7d565b6001600160a01b03166001600160a01b031681526020019081526020016000206005015411610d7e5760405162461bcd60e51b8152600401808060200182810382526028815260200180612e566028913960400191505060405180910390fd5b600060106000610d8c611d7d565b6001600160a01b03166001600160a01b0316815260200190815260200160002090506000610dc0610dbb611d7d565b6121a6565b9050804211610e005760405162461bcd60e51b815260040180806020018281038252602e815260200180612d9e602e913960400191505060405180910390fd5b600081420390508183600301541115610e1c5750600382015442035b6000610e4382610e3d8660010154876000015461220090919063ffffffff16565b90612267565b905080846005015411610e6157506005830180546000909155610e76565b6005840154610e7090826122c0565b60058501555b426003850155610e8d610e87611d7d565b8261231d565b50506001600055505050565b600d602052600090815260409020546001600160a01b031681565b60026000541415610efa576040805162461bcd60e51b815260206004820152601f6024820152600080516020612bc4833981519152604482015290519081900360640190fd5b6002600055610f093382612427565b506001600055565b6007546001600160a01b0316610f25611d7d565b6001600160a01b031614610f6e576040805162461bcd60e51b81526020600482015260186024820152600080516020612ea1833981519152604482015290519081900360640190fd5b60026000541415610fb4576040805162461bcd60e51b815260206004820152601f6024820152600080516020612bc4833981519152604482015290519081900360640190fd5b6009556001600055565b600f6020526000908152604090205481565b6001600160a01b03166000908152600a602052604090205490565b6008546000906001600160a01b0316611002611d7d565b6001600160a01b0316148061103157506007546001600160a01b0316611026611d7d565b6001600160a01b0316145b61106c5760405162461bcd60e51b8152600401808060200182810382526022815260200180612c776022913960400191505060405180910390fd5b600260005414156110b2576040805162461bcd60e51b815260206004820152601f6024820152600080516020612bc4833981519152604482015290519081900360640190fd5b60026000556110c183836124a7565b60016000559392505050565b6000438210611123576040805162461bcd60e51b815260206004820181905260248201527f5374616b696e67546f6b656e3a206e6f74207965742064657465726d696e6564604482015290519081900360640190fd5b6001600160a01b0383166000908152600f60205260409020548061114b5760009150506112a0565b6001600160a01b0384166000908152600e602090815260408083206000198501845290915290205483106111ab576001600160a01b0384166000908152600e602090815260408083206000199094018352929052206001015490506112a0565b6001600160a01b0384166000908152600e602090815260408083208380529091529020548310156111e05760009150506112a0565b600060001982015b81811115611275576002828203048103611200612af3565b506001600160a01b0387166000908152600e602090815260408083208484528252918290208251808401909352805480845260019091015491830191909152871415611256576020015194506112a09350505050565b80518711156112675781935061126e565b6001820392505b50506111e8565b506001600160a01b0385166000908152600e6020908152604080832093835292905220600101549150505b92915050565b600260005414156112ec576040805162461bcd60e51b815260206004820152601f6024820152600080516020612bc4833981519152604482015290519081900360640190fd5b6002600081905550600061132b82604051806060016040528060248152602001612d7a602491396113248661131f611d7d565b611a7e565b9190611fc3565b905061133f83611339611d7d565b83611d81565b61134983836120b4565b5050600160005550565b6007546001600160a01b031690565b60095481565b60065490565b60038054604080516020601f600260001961010060018816150201909516949094049384018190048102820181019092528281526060939092909183018282801561098e5780601f106109635761010080835404028352916020019161098e565b6000806009541180156113e3575060095442115b6113ec57600080fd5b600b60006113f8611d7d565b6001600160a01b0316815260208101919091526040016000205461141e57506000610996565b6010600061142a611d7d565b6001600160a01b0316815260208101919091526040016000206005015461145357506000610996565b600060106000611461611d7d565b6001600160a01b03166001600160a01b0316815260200190815260200160002090506000611490610dbb611d7d565b9050804210156114a557600092505050610996565b6000814203905081836003015411156114c15750600382015442035b60006114e282610e3d8660010154876000015461220090919063ffffffff16565b94505050505090565b601060205260009081526040902080546001820154600283015460038401546004850154600590950154939492939192909186565b600060026000541415611568576040805162461bcd60e51b815260206004820152601f6024820152600080516020612bc4833981519152604482015290519081900360640190fd5b60026000556008546001600160a01b0316611581611d7d565b6001600160a01b031614806115b057506007546001600160a01b03166115a5611d7d565b6001600160a01b0316145b6115eb5760405162461bcd60e51b8152600401808060200182810382526022815260200180612c776022913960400191505060405180910390fd5b610c336115f6611d7d565b836125b1565b600060026000541415611644576040805162461bcd60e51b815260206004820152601f6024820152600080516020612bc4833981519152604482015290519081900360640190fd5b60026000556109f8611654611d7d565b84610b1a85604051806060016040528060258152602001612ec160259139600c600061167e611d7d565b6001600160a01b03908116825260208083019390935260409182016000908120918d16815292529020549190611fc3565b6000600260005414156116f7576040805162461bcd60e51b815260206004820152601f6024820152600080516020612bc4833981519152604482015290519081900360640190fd5b60026000556109f8611707611d7d565b8484611e6d565b6001600160a01b0381166000908152600f60205260408120548061173357600061175f565b6001600160a01b0383166000908152600e60209081526040808320600019850184529091529020600101545b9392505050565b6007546001600160a01b031661177a611d7d565b6001600160a01b0316146117c3576040805162461bcd60e51b81526020600482015260186024820152600080516020612ea1833981519152604482015290519081900360640190fd5b80516117d6906003906020840190612b0d565b5050565b6007546001600160a01b03166117ee611d7d565b6001600160a01b031614611837576040805162461bcd60e51b81526020600482015260186024820152600080516020612ea1833981519152604482015290519081900360640190fd5b80516117d6906002906020840190612b0d565b6001600160a01b03166000908152600b602052604090205490565b6008546000906001600160a01b031661187c611d7d565b6001600160a01b031614806118ab57506007546001600160a01b03166118a0611d7d565b6001600160a01b0316145b6118e65760405162461bcd60e51b8152600401808060200182810382526022815260200180612c776022913960400191505060405180910390fd5b6002600054141561192c576040805162461bcd60e51b815260206004820152601f6024820152600080516020612bc4833981519152604482015290519081900360640190fd5b60026000556110c1838361231d565b6008546001600160a01b031690565b6007546001600160a01b031661195e611d7d565b6001600160a01b0316146119a7576040805162461bcd60e51b81526020600482015260186024820152600080516020612ea1833981519152604482015290519081900360640190fd5b600260005414156119ed576040805162461bcd60e51b815260206004820152601f6024820152600080516020612bc4833981519152604482015290519081900360640190fd5b6002600055600554811115611a335760405162461bcd60e51b8152600401808060200182810382526023815260200180612e7e6023913960400191505060405180910390fd5b600154811015611a745760405162461bcd60e51b8152600401808060200182810382526036815260200180612cc86036913960400191505060405180910390fd5b6006556001600055565b6001600160a01b039182166000908152600c6020908152604080832093909416825291909152205490565b6008546001600160a01b0316611abd611d7d565b6001600160a01b03161480611aec57506007546001600160a01b0316611ae1611d7d565b6001600160a01b0316145b611b275760405162461bcd60e51b8152600401808060200182810382526022815260200180612c776022913960400191505060405180910390fd5b60026000541415611b6d576040805162461bcd60e51b815260206004820152601f6024820152600080516020612bc4833981519152604482015290519081900360640190fd5b600260009081556001600160a01b03851681526010602052604090206005015415611b9757600080fd5b6001600160a01b038416600090815260106020526040902083815560018101839055600281018290554260048201819055600582018590556003820155611bde30856125b1565b610e8d308686612699565b6007546001600160a01b0316611bfd611d7d565b6001600160a01b031614611c46576040805162461bcd60e51b81526020600482015260186024820152600080516020612ea1833981519152604482015290519081900360640190fd5b60026000541415611c8c576040805162461bcd60e51b815260206004820152601f6024820152600080516020612bc4833981519152604482015290519081900360640190fd5b600880546001600160a01b0319166001600160a01b03929092169190911790556001600055565b6007546001600160a01b0316611cc7611d7d565b6001600160a01b031614611d10576040805162461bcd60e51b81526020600482015260186024820152600080516020612ea1833981519152604482015290519081900360640190fd5b60026000541415611d56576040805162461bcd60e51b815260206004820152601f6024820152600080516020612bc4833981519152604482015290519081900360640190fd5b600780546001600160a01b0319166001600160a01b03929092169190911790556001600055565b3390565b6001600160a01b038316611dc65760405162461bcd60e51b8152600401808060200182810382526024815260200180612e326024913960400191505060405180910390fd5b6001600160a01b038216611e0b5760405162461bcd60e51b8152600401808060200182810382526022815260200180612c066022913960400191505060405180910390fd5b6001600160a01b038084166000818152600c6020908152604080832094871680845294825291829020859055815185815291517f8c5be1e5ebec7d5bd14f71427d1e84f3dd0314c0f7b2291e5b200ac8c7c3b9259281900390910190a3505050565b6001600160a01b038316611eb25760405162461bcd60e51b8152600401808060200182810382526025815260200180612e0d6025913960400191505060405180910390fd5b6001600160a01b038216611ef75760405162461bcd60e51b8152600401808060200182810382526023815260200180612ba16023913960400191505060405180910390fd5b611f02838383612835565b611f3f81604051806060016040528060268152602001612c51602691396001600160a01b0386166000908152600a60205260409020549190611fc3565b6001600160a01b038085166000908152600a60205260408082209390935590841681522054611f6e908261205a565b6001600160a01b038084166000818152600a60209081526040918290209490945580518581529051919392871692600080516020612dcc83398151915292918290030190a3611fbe8383836128ba565b505050565b600081848411156120525760405162461bcd60e51b81526004018080602001828103825283818151815260200191508051906020019080838360005b83811015612017578181015183820152602001611fff565b50505050905090810190601f1680156120445780820380516001836020036101000a031916815260200191505b509250505060405180910390fd5b505050900390565b60008282018381101561175f576040805162461bcd60e51b815260206004820152601b60248201527f536166654d6174683a206164646974696f6e206f766572666c6f770000000000604482015290519081900360640190fd5b6001600160a01b0382166120f95760405162461bcd60e51b8152600401808060200182810382526021815260200180612dec6021913960400191505060405180910390fd5b61210582600083612835565b61214281604051806060016040528060228152602001612be4602291396001600160a01b0385166000908152600a60205260409020549190611fc3565b6001600160a01b0383166000908152600a602052604090205560015461216890826122c0565b6001556040805182815290516000916001600160a01b03851691600080516020612dcc8339815191529181900360200190a36117d6826000836128ba565b6001600160a01b03811660009081526010602052604081206009546004820154839110156121d9575060048101546121de565b506009545b60028201541561175f5760028201546121f890829061205a565b949350505050565b6000808211612256576040805162461bcd60e51b815260206004820152601a60248201527f536166654d6174683a206469766973696f6e206279207a65726f000000000000604482015290519081900360640190fd5b81838161225f57fe5b049392505050565b600082612276575060006112a0565b8282028284828161228357fe5b041461175f5760405162461bcd60e51b8152600401808060200182810382526021815260200180612cfe6021913960400191505060405180910390fd5b600082821115612317576040805162461bcd60e51b815260206004820152601e60248201527f536166654d6174683a207375627472616374696f6e206f766572666c6f770000604482015290519081900360640190fd5b50900390565b6001600160a01b0382166000908152600b60205260408120548211156123745760405162461bcd60e51b8152600401808060200182810382526029815260200180612c286029913960400191505060405180910390fd5b6001600160a01b0383166000908152600b602052604090205461239790836122c0565b6001600160a01b0384166000908152600b6020908152604080832093909355600a905220546123c6908361205a565b6001600160a01b0384166000818152600a602090815260409182902093909355805191825291810184905281517f9203a017ec12fc94b6cad1efbd686fe29106563fb8a453b242a210de436f4f5c929181900390910190a150600192915050565b6001600160a01b038083166000818152600d602081815260408084208054600a845282862054949093528787166001600160a01b03198416811790915590519190951694919391928592917f3134e8a2e6d97e929a7e54011ea5485d7d196dd5f0ba4d4ef95803e8e3fc257f9190a46124a18284836128c1565b50505050565b6001600160a01b0382166000908152600a60205260408120548211156124fe5760405162461bcd60e51b815260040180806020018281038252602f815260200180612c99602f913960400191505060405180910390fd5b6001600160a01b0383166000908152600a602052604090205461252190836122c0565b6001600160a01b0384166000908152600a6020908152604080832093909355600b90522054612550908361205a565b6001600160a01b0384166000818152600b602090815260409182902093909355805191825291810184905281517f19eed47758880b43e710d4e572e5412b5e69bd25ab4760db2c5274f0c3ab9a71929181900390910190a150600192915050565b6001600160a01b03821661260c576040805162461bcd60e51b815260206004820152601f60248201527f45524332303a206d696e7420746f20746865207a65726f206164647265737300604482015290519081900360640190fd5b61261860008383612835565b600154612625908261205a565b6001556001600160a01b0382166000908152600a602052604090205461264b908261205a565b6001600160a01b0383166000818152600a60209081526040808320949094558351858152935192939192600080516020612dcc8339815191529281900390910190a36117d6600083836128ba565b6001600160a01b0383166126de5760405162461bcd60e51b8152600401808060200182810382526025815260200180612e0d6025913960400191505060405180910390fd5b6001600160a01b0382166127235760405162461bcd60e51b8152600401808060200182810382526023815260200180612ba16023913960400191505060405180910390fd5b61272e838383612835565b61276b81604051806060016040528060268152602001612c51602691396001600160a01b0386166000908152600a60205260409020549190611fc3565b6001600160a01b038085166000908152600a60209081526040808320949094559185168152600b90915220546127a1908261205a565b6001600160a01b038084166000818152600b60209081526040918290209490945580518581529051919392871692600080516020612dcc83398151915292918290030190a3604080516001600160a01b03841681526020810183905281517f19eed47758880b43e710d4e572e5412b5e69bd25ab4760db2c5274f0c3ab9a71929181900390910190a1611fbe8383836128ba565b6001600160a01b038316611fbe57600061285782612851610a51565b9061205a565b9050600654811115801561286d57506005548111155b6124a1576040805162461bcd60e51b8152602060048201526019602482015278115490cc8c10d85c1c19590e8818d85c08195e18d959591959603a1b604482015290519081900360640190fd5b611fbe8383835b816001600160a01b0316836001600160a01b0316141580156128e35750600081115b15611fbe576001600160a01b03831615612969576001600160a01b0383166000908152600f6020526040812054908161291d576000612949565b6001600160a01b0385166000908152600e60209081526040808320600019860184529091529020600101545b9050600061295782856122c0565b9050612965868484846129ee565b5050505b6001600160a01b03821615611fbe576001600160a01b0382166000908152600f6020526040812054908161299e5760006129ca565b6001600160a01b0384166000908152600e60209081526040808320600019860184529091529020600101545b905060006129d8828561205a565b90506129e6858484846129ee565b505050505050565b600083118015612a2457506001600160a01b0384166000908152600e602090815260408083206000198701845290915290205443145b15612a5b576001600160a01b0384166000908152600e60209081526040808320600019870184529091529020600101819055612aaa565b60408051808201825243815260208082018481526001600160a01b0388166000818152600e845285812089825284528581209451855591516001948501558152600f9091529190912090840190555b604080518381526020810183905281516001600160a01b038716927fdec2bacdd2f05b59de34da9b523dff8be42e5e38e818c82fdb0bae774387a724928290030190a250505050565b604051806040016040528060008152602001600081525090565b828054600181600116156101000203166002900490600052602060002090601f016020900481019282601f10612b4e57805160ff1916838001178555612b7b565b82800160010185558215612b7b579182015b82811115612b7b578251825591602001919060010190612b60565b50612b87929150612b8b565b5090565b5b80821115612b875760008155600101612b8c56fe45524332303a207472616e7366657220746f20746865207a65726f20616464726573735265656e7472616e637947756172643a207265656e7472616e742063616c6c0045524332303a206275726e20616d6f756e7420657863656564732062616c616e636545524332303a20617070726f766520746f20746865207a65726f20616464726573735374616b696e67546f6b656e3a206e6f7420656e6f7567682072657365727665642062616c616e636545524332303a207472616e7366657220616d6f756e7420657863656564732062616c616e63655374616b696e67546f6b656e3a20496e76616c6964206d696e7420726571756573745374616b696e67546f6b656e3a2075736572277320667265652062616c616e6365206973206e6f7420656e6f7567685374616b696e67546f6b656e3a20736f6674636170206d75737420626520686967686572207468616e20746f74616c20737570706c79536166654d6174683a206d756c7469706c69636174696f6e206f766572666c6f7745524332303a207472616e7366657220616d6f756e74206578636565647320616c6c6f77616e63655374616b696e67546f6b656e3a3a636c61696d3a2073656e64657220686173206e6f2072657365727665642062616c616e636545524332303a206275726e20616d6f756e74206578636565647320616c6c6f77616e63655374616b696e67546f6b656e3a3a636c61696d3a2072656c6561736520686173206e6f7420626567696e20796574ddf252ad1be2c89b69c2b068fc378daa952ba7f163c4a11628f55a4df523b3ef45524332303a206275726e2066726f6d20746865207a65726f206164647265737345524332303a207472616e736665722066726f6d20746865207a65726f206164647265737345524332303a20617070726f76652066726f6d20746865207a65726f20616464726573735374616b696e67546f6b656e3a3a636c61696d3a2073656e64657220686173206e6f206c6f636b735374616b696e67546f6b656e3a20736f6674636170206f766572666c6f7773206361705374616b696e67546f6b656e3a204f776e6572206f6e6c79000000000000000045524332303a2064656372656173656420616c6c6f77616e63652062656c6f77207a65726fa2646970667358221220c432bf8591e0b7b52993b1ba01476de7016249260e73114a5f8f6833e1bdb20964736f6c634300060c003300000000000000000000000000000000000000000000000000000000000000a000000000000000000000000000000000000000000000000000000000000000e0000000000000000000000000000000000000000000000000000000000000001200000000000000000000000000000000000000000000d3c21bcecceda100000000000000000000000000000000000000000000000000d3c21bcecceda100000000000000000000000000000000000000000000000000000000000000000000045a4554480000000000000000000000000000000000000000000000000000000000000000000000000000000000000000000000000000000000000000000000045a45544800000000000000000000000000000000000000000000000000000000

Constructor Arguments (ABI-Encoded and is the last bytes of the Contract Creation Code above)

00000000000000000000000000000000000000000000000000000000000000a000000000000000000000000000000000000000000000000000000000000000e0000000000000000000000000000000000000000000000000000000000000001200000000000000000000000000000000000000000000d3c21bcecceda100000000000000000000000000000000000000000000000000d3c21bcecceda100000000000000000000000000000000000000000000000000000000000000000000045a4554480000000000000000000000000000000000000000000000000000000000000000000000000000000000000000000000000000000000000000000000045a45544800000000000000000000000000000000000000000000000000000000

-----Encoded View---------------
9 Constructor Arguments found :
Arg [0] : 00000000000000000000000000000000000000000000000000000000000000a0
Arg [1] : 00000000000000000000000000000000000000000000000000000000000000e0
Arg [2] : 0000000000000000000000000000000000000000000000000000000000000012
Arg [3] : 00000000000000000000000000000000000000000000d3c21bcecceda1000000
Arg [4] : 00000000000000000000000000000000000000000000d3c21bcecceda1000000
Arg [5] : 0000000000000000000000000000000000000000000000000000000000000004
Arg [6] : 5a45544800000000000000000000000000000000000000000000000000000000
Arg [7] : 0000000000000000000000000000000000000000000000000000000000000004
Arg [8] : 5a45544800000000000000000000000000000000000000000000000000000000


Deployed ByteCode Sourcemap

27957:20690:0:-:0;;;;;;;;;;;;;;;;;;;;;;;;;;;;;;;;;;;;;;;;;;;;;;;;;;;;;;;;;;;;;;;;;;;;;;;;;;;;;;;;;;;;;;;;;;;;;;;;;;;;;;;;;;;;;;;;;;;;;;;;;;;;;;;;;;;;;;;;;;;;;;;;;;;;;;;;;;;;;;;;;;;;;;;;;;;;;;;;;;;;;;;;;;;;;;;;;;;;;;;;;;;;;;;;;;;;;;;;;;;;;;;;;;;;;;;;;;;;;;;;;;;;;;;;;;;;;;;;;;;;;;;;;;;;;31070:83;;;:::i;:::-;;;;;;;;;;;;;;;;;;;;;;;;;;;;;;;;;;;;;;;;;;;;;;;;;;;;;;;;;;;;;;;;;;;;;;;;;;;;;;;;;;;;;;;;;;;;;;;;;;;;32758:232;;;;;;;;;;;;;;;;-1:-1:-1;;;;;;32758:232:0;;;;;;;;:::i;:::-;;;;;;;;;;;;;;;;;;29059:69;;;;;;;;;;;;;;;;-1:-1:-1;;;;;;29059:69:0;;;;;;;;:::i;:::-;;;;;;;;;;;;;;;;;;;;;;;38990:218;;;;;;;;;;;;;;;;-1:-1:-1;38990:218:0;-1:-1:-1;;;;;38990:218:0;;:::i;31347:100::-;;;:::i;:::-;;;;;;;;;;;;;;;;32998:467;;;;;;;;;;;;;;;;-1:-1:-1;;;;;;32998:467:0;;;;;;;;;;;;;;;;;:::i;31256:83::-;;;:::i;:::-;;;;;;;;;;;;;;;;;;;31455:75;;;:::i;33473:322::-;;;;;;;;;;;;;;;;-1:-1:-1;;;;;;33473:322:0;;;;;;;;:::i;34451:141::-;;;;;;;;;;;;;;;;-1:-1:-1;34451:141:0;;:::i;45856:1251::-;;;:::i;:::-;;28769:44;;;;;;;;;;;;;;;;-1:-1:-1;28769:44:0;-1:-1:-1;;;;;28769:44:0;;:::i;:::-;;;;-1:-1:-1;;;;;28769:44:0;;;;;;;;;;;;;;41786:115;;;;;;;;;;;;;;;;-1:-1:-1;41786:115:0;-1:-1:-1;;;;;41786:115:0;;:::i;30870:91::-;;;;;;;;;;;;;;;;-1:-1:-1;30870:91:0;;:::i;29197:49::-;;;;;;;;;;;;;;;;-1:-1:-1;29197:49:0;-1:-1:-1;;;;;29197:49:0;;:::i;31930:165::-;;;;;;;;;;;;;;;;-1:-1:-1;31930:165:0;-1:-1:-1;;;;;31930:165:0;;:::i;39216:193::-;;;;;;;;;;;;;;;;-1:-1:-1;;;;;;39216:193:0;;;;;;;;:::i;42770:1251::-;;;;;;;;;;;;;;;;-1:-1:-1;;;;;;42770:1251:0;;;;;;;;:::i;34600:402::-;;;;;;;;;;;;;;;;-1:-1:-1;;;;;;34600:402:0;;;;;;;;:::i;30783:79::-;;;:::i;28454:20::-;;;:::i;31538:83::-;;;:::i;31161:87::-;;;:::i;45073:775::-;;;:::i;47353:58::-;;;;;;;;;;;;;;;;-1:-1:-1;47353:58:0;-1:-1:-1;;;;;47353:58:0;;:::i;:::-;;;;;;;;;;;;;;;;;;;;;;;;;;;;;;;;;;;;;;;;;;;;;34233:210;;;;;;;;;;;;;;;;-1:-1:-1;34233:210:0;;:::i;33803:422::-;;;;;;;;;;;;;;;;-1:-1:-1;;;;;;33803:422:0;;;;;;;;:::i;32287:238::-;;;;;;;;;;;;;;;;-1:-1:-1;;;;;;32287:238:0;;;;;;;;:::i;42102:237::-;;;;;;;;;;;;;;;;-1:-1:-1;42102:237:0;-1:-1:-1;;;;;42102:237:0;;:::i;32191:88::-;;;;;;;;;;;;;;;;;;;;;;;;-1:-1:-1;;;32191:88:0;;;;;;;;;;;;;;;;;;;;;;;;;;;;;;;;;;;;-1:-1:-1;;;32191:88:0;;;;;;;;;;;;;;;;;;;;;;;;;;;;;;;;;;;;;;;;;;;;;;;;;;;;;-1:-1:-1;32191:88:0;;-1:-1:-1;32191:88:0;;-1:-1:-1;;;;;32191:88:0:i;32103:80::-;;;;;;;;;;;;;;;;;;;;;;;;-1:-1:-1;;;32103:80:0;;;;;;;;;;;;;;;;;;;;;;;;;;;;;;;;;;;;-1:-1:-1;;;32103:80:0;;;;;;;;;;;;;;;;;;;;;;;;;;;;;;;;;;;;;;;;;;;;;;;;;;;;;-1:-1:-1;32103:80:0;;-1:-1:-1;32103:80:0;;-1:-1:-1;;;;;32103:80:0:i;38862:120::-;;;;;;;;;;;;;;;;-1:-1:-1;38862:120:0;-1:-1:-1;;;;;38862:120:0;;:::i;39417:197::-;;;;;;;;;;;;;;;;-1:-1:-1;;;;;;39417:197:0;;;;;;;;:::i;30969:93::-;;;:::i;31629:293::-;;;;;;;;;;;;;;;;-1:-1:-1;31629:293:0;;:::i;32533:217::-;;;;;;;;;;;;;;;;-1:-1:-1;;;;;;32533:217:0;;;;;;;;;;:::i;44414:651::-;;;;;;;;;;;;;;;;-1:-1:-1;;;;;;44414:651:0;;;;;;;;;;;;;;;;;;:::i;39622:116::-;;;;;;;;;;;;;;;;-1:-1:-1;39622:116:0;-1:-1:-1;;;;;39622:116:0;;:::i;30628:147::-;;;;;;;;;;;;;;;;-1:-1:-1;30628:147:0;-1:-1:-1;;;;;30628:147:0;;:::i;31070:83::-;31140:5;31133:12;;;;;;;-1:-1:-1;;31133:12:0;;;;;;;;;;;;;;;;;;;;;;;;;;;;;;;31107:13;;31133:12;;31140:5;;31133:12;;31140:5;31133:12;;;;;;;;;;;;;;;;;;;;;;;;;;;;;;;;;;;;;;;;;;;;;;;;;;;;;;;;;;;;;;;;;;;31070:83;;:::o;32758:232::-;32899:4;26798:1;27403:7;;:19;;27395:63;;;;;-1:-1:-1;;;27395:63:0;;;;;;;;;;;;-1:-1:-1;;;;;;;;;;;27395:63:0;;;;;;;;;;;;;;;26798:1;27536:7;:18;32921:39:::1;32930:12;:10;:12::i;:::-;32944:7;32953:6;32921:8;:39::i;:::-;-1:-1:-1::0;32978:4:0::1;26754:1:::0;27715:7;:22;32758:232;;-1:-1:-1;;32758:232:0:o;29059:69::-;;;;;;;;;;;;;;;;;;;;;;;;;;;;;;:::o;38990:218::-;-1:-1:-1;;;;;39152:18:0;39080:20;39152:18;;;:9;:18;;;;;;;;;39172;:27;;;;;;;39152:18;;38990:218::o;31347:100::-;31427:12;;31347:100;:::o;32998:467::-;33151:4;26798:1;27403:7;;:19;;27395:63;;;;;-1:-1:-1;;;27395:63:0;;;;;;;;;;;;-1:-1:-1;;;;;;;;;;;27395:63:0;;;;;;;;;;;;;;;26798:1;27536:7;:18;33168:36:::1;33178:6:::0;33186:9;33197:6;33168:9:::1;:36::i;:::-;33215:220;33238:6;33259:12;:10;:12::i;:::-;33286:138;33342:6;33286:138;;;;;;;;;;;;;;;;;-1:-1:-1::0;;;;;33286:19:0;::::1;;::::0;;;:11:::1;:19;::::0;;;;;33306:12:::1;:10;:12::i;:::-;-1:-1:-1::0;;;;;33286:33:0::1;::::0;;::::1;::::0;::::1;::::0;;;;;;-1:-1:-1;33286:33:0;;;:138;:37:::1;:138::i;:::-;33215:8;:220::i;:::-;-1:-1:-1::0;33453:4:0::1;26754:1:::0;27715:7;:22;32998:467;;-1:-1:-1;;;32998:467:0:o;31256:83::-;31322:9;;;;31256:83;:::o;31455:75::-;31518:4;;31455:75;:::o;33473:322::-;33610:4;26798:1;27403:7;;:19;;27395:63;;;;;-1:-1:-1;;;27395:63:0;;;;;;;;;;;;-1:-1:-1;;;;;;;;;;;27395:63:0;;;;;;;;;;;;;;;26798:1;27536:7;:18;33632:133:::1;33655:12;:10;:12::i;:::-;33682:7;33704:50;33743:10;33704:11;:25;33716:12;:10;:12::i;:::-;-1:-1:-1::0;;;;;33704:25:0;;::::1;::::0;;::::1;::::0;;::::1;::::0;;;;;;;;-1:-1:-1;33704:25:0;;;:34;;::::1;::::0;;;;;;;;:38:::1;:50::i;34451:141::-:0;34518:4;26798:1;27403:7;;:19;;27395:63;;;;;-1:-1:-1;;;27395:63:0;;;;;;;;;;;;-1:-1:-1;;;;;;;;;;;27395:63:0;;;;;;;;;;;;;;;26798:1;27536:7;:18;34535:27:::1;34541:12;:10;:12::i;:::-;34555:6;34535:5;:27::i;:::-;-1:-1:-1::0;34580:4:0::1;26754:1:::0;27715:7;:22;34451:141;;-1:-1:-1;34451:141:0:o;45856:1251::-;26798:1;27403:7;;:19;;27395:63;;;;;-1:-1:-1;;;27395:63:0;;;;;;;;;;;;-1:-1:-1;;;;;;;;;;;27395:63:0;;;;;;;;;;;;;;;26798:1;27536:7;:18;30239:5:::1;::::0;:9;;;;:36:::1;;;30270:5;;30252:15;:23;30239:36;30231:45;;;::::0;::::1;;45969:1:::2;45934:18;:32;45953:12;:10;:12::i;:::-;-1:-1:-1::0;;;;;45934:32:0::2;-1:-1:-1::0;;;;;45934:32:0::2;;;;;;;;;;;;;:36;45912:137;;;;-1:-1:-1::0;;;45912:137:0::2;;;;;;;;;;;;;;;;;;;;;;;;;;;;;;;;;;;;46121:1;46082:6;:20;46089:12;:10;:12::i;:::-;-1:-1:-1::0;;;;;46082:20:0::2;-1:-1:-1::0;;;;;46082:20:0::2;;;;;;;;;;;;:36;;;:40;46060:130;;;;-1:-1:-1::0;;;46060:130:0::2;;;;;;;;;;;;;;;;;;;;;;;;;;;;;;;;;;;;46203:37;46243:6;:20;46250:12;:10;:12::i;:::-;-1:-1:-1::0;;;;;46243:20:0::2;-1:-1:-1::0;;;;;46243:20:0::2;;;;;;;;;;;;46203:60;;46276:14;46293:28;46308:12;:10;:12::i;:::-;46293:14;:28::i;:::-;46276:45;;46372:6;46354:15;:24;46332:120;;;;-1:-1:-1::0;;;46332:120:0::2;;;;;;;;;;;;;;;;;;;;;;;;;;;;;;;;;;;;46465:21;46507:6;46489:15;:24;46465:48;;46548:6;46528:4;:17;;;:26;46524:110;;;-1:-1:-1::0;46605:17:0::2;::::0;::::2;::::0;46587:15:::2;:35;46524:110;46644:23;46683:56;46725:13;46683:37;46705:4;:14;;;46683:4;:17;;;:21;;:37;;;;:::i;:::-;:41:::0;::::2;:56::i;:::-;46644:95;;46780:15;46756:4;:20;;;:39;46752:246;;-1:-1:-1::0;46830:20:0::2;::::0;::::2;::::0;;46888:1:::2;46865:24:::0;;;46752:246:::2;;;46945:20;::::0;::::2;::::0;:41:::2;::::0;46970:15;46945:24:::2;:41::i;:::-;46922:20;::::0;::::2;:64:::0;46752:246:::2;47030:15;47010:17;::::0;::::2;:35:::0;47058:41:::2;47069:12;:10;:12::i;:::-;47083:15;47058:10;:41::i;:::-;-1:-1:-1::0;;26754:1:0;27715:7;:22;-1:-1:-1;;;45856:1251:0:o;28769:44::-;;;;;;;;;;;;-1:-1:-1;;;;;28769:44:0;;:::o;41786:115::-;26798:1;27403:7;;:19;;27395:63;;;;;-1:-1:-1;;;27395:63:0;;;;;;;;;;;;-1:-1:-1;;;;;;;;;;;27395:63:0;;;;;;;;;;;;;;;26798:1;27536:7;:18;41861:32:::1;41871:10;41883:9:::0;41861::::1;:32::i;:::-;-1:-1:-1::0;26754:1:0;27715:7;:22;41786:115::o;30870:91::-;30359:6;;-1:-1:-1;;;;;30359:6:0;30343:12;:10;:12::i;:::-;-1:-1:-1;;;;;30343:22:0;;30335:59;;;;;-1:-1:-1;;;30335:59:0;;;;;;;;;;;;-1:-1:-1;;;;;;;;;;;30335:59:0;;;;;;;;;;;;;;;26798:1:::1;27403:7;;:19;;27395:63;;;::::0;;-1:-1:-1;;;27395:63:0;;::::1;;::::0;::::1;::::0;::::1;::::0;;;;-1:-1:-1;;;;;;;;;;;27395:63:0;;;;;;;;;;;;;::::1;;30943:5:::2;:10:::0;26754:1:::1;27536:7;27715:22:::0;30870:91::o;29197:49::-;;;;;;;;;;;;;:::o;31930:165::-;-1:-1:-1;;;;;32069:18:0;32032:12;32069:18;;;:9;:18;;;;;;;31930:165::o;39216:193::-;30499:13;;39351:4;;-1:-1:-1;;;;;30499:13:0;30483:12;:10;:12::i;:::-;-1:-1:-1;;;;;30483:29:0;;:55;;;-1:-1:-1;30532:6:0;;-1:-1:-1;;;;;30532:6:0;30516:12;:10;:12::i;:::-;-1:-1:-1;;;;;30516:22:0;;30483:55;30461:139;;;;-1:-1:-1;;;30461:139:0;;;;;;;;;;;;;;;;;;;;;;;;;;;;;;;;;;;;26798:1:::1;27403:7;;:19;;27395:63;;;::::0;;-1:-1:-1;;;27395:63:0;;::::1;;::::0;::::1;::::0;::::1;::::0;;;;-1:-1:-1;;;;;;;;;;;27395:63:0;;;;;;;;;;;;;::::1;;26798:1;27536:7;:18:::0;39380:21:::2;39389:3:::0;39394:6;39380:8:::2;:21::i;:::-;26754:1:::1;27715:7;:22:::0;39373:28;39216:193;-1:-1:-1;;;39216:193:0:o;42770:1251::-;42879:7;42926:12;42912:11;:26;42904:71;;;;;-1:-1:-1;;;42904:71:0;;;;;;;;;;;;;;;;;;;;;;;;;;;;;-1:-1:-1;;;;;43011:23:0;;42988:20;43011:23;;;:14;:23;;;;;;43049:17;43045:58;;43090:1;43083:8;;;;;43045:58;-1:-1:-1;;;;;43163:20:0;;;;;;:11;:20;;;;;;;;-1:-1:-1;;43184:16:0;;43163:38;;;;;;;:48;:63;-1:-1:-1;43159:147:0;;-1:-1:-1;;;;;43250:20:0;;;;;;:11;:20;;;;;;;;-1:-1:-1;;43271:16:0;;;43250:38;;;;;;43286:1;43250:44;;;-1:-1:-1;43243:51:0;;43159:147;-1:-1:-1;;;;;43367:20:0;;;;;;:11;:20;;;;;;;;:23;;;;;;;;:33;:47;-1:-1:-1;43363:88:0;;;43438:1;43431:8;;;;;43363:88;43463:13;-1:-1:-1;;43507:16:0;;43534:429;43549:5;43541;:13;43534:429;;;43614:1;43597:13;;;43596:19;43588:27;;43657:20;;:::i;:::-;-1:-1:-1;;;;;;43680:20:0;;;;;;:11;:20;;;;;;;;:28;;;;;;;;;43657:51;;;;;;;;;;;;;;;;;;;;;;;;;43727:27;;43723:229;;;43782:8;;;;-1:-1:-1;43775:15:0;;-1:-1:-1;;;;43775:15:0;43723:229;43816:12;;:26;-1:-1:-1;43812:140:0;;;43871:6;43863:14;;43812:140;;;43935:1;43926:6;:10;43918:18;;43812:140;43534:429;;;;;-1:-1:-1;;;;;;43980:20:0;;;;;;:11;:20;;;;;;;;:27;;;;;;;:33;;;;-1:-1:-1;;42770:1251:0;;;;;:::o;34600:402::-;26798:1;27403:7;;:19;;27395:63;;;;;-1:-1:-1;;;27395:63:0;;;;;;;;;;;;-1:-1:-1;;;;;;;;;;;27395:63:0;;;;;;;;;;;;;;;26798:1;27536:7;:18;;;;34722:26:::1;34764:133;34819:6;34764:133;;;;;;;;;;;;;;;;;:32;34774:7;34783:12;:10;:12::i;:::-;34764:9;:32::i;:::-;:36:::0;:133;:36:::1;:133::i;:::-;34722:175;;34910:51;34919:7;34928:12;:10;:12::i;:::-;34942:18;34910:8;:51::i;:::-;34972:22;34978:7;34987:6;34972:5;:22::i;:::-;-1:-1:-1::0;;26754:1:0;27715:7;:22;-1:-1:-1;34600:402:0:o;30783:79::-;30848:6;;-1:-1:-1;;;;;30848:6:0;30783:79;:::o;28454:20::-;;;;:::o;31538:83::-;31605:8;;31538:83;:::o;31161:87::-;31233:7;31226:14;;;;;;;;-1:-1:-1;;31226:14:0;;;;;;;;;;;;;;;;;;;;;;;;;;;;;;;;31200:13;;31226:14;;31233:7;;31226:14;;31233:7;31226:14;;;;;;;;;;;;;;;;;;;;;;;;45073:775;45123:7;30247:1;30239:5;;:9;:36;;;;;30270:5;;30252:15;:23;30239:36;30231:45;;;;;;45147:18:::1;:32;45166:12;:10;:12::i;:::-;-1:-1:-1::0;;;;;45147:32:0::1;::::0;;::::1;::::0;::::1;::::0;;;;;;-1:-1:-1;45147:32:0;;45143:78:::1;;-1:-1:-1::0;45208:1:0::1;45201:8;;45143:78;45235:6;:20;45242:12;:10;:12::i;:::-;-1:-1:-1::0;;;;;45235:20:0::1;::::0;;::::1;::::0;::::1;::::0;;;;;;-1:-1:-1;45235:20:0;:36:::1;;::::0;45231:82:::1;;-1:-1:-1::0;45300:1:0::1;45293:8;;45231:82;45325:37;45365:6;:20;45372:12;:10;:12::i;:::-;-1:-1:-1::0;;;;;45365:20:0::1;-1:-1:-1::0;;;;;45365:20:0::1;;;;;;;;;;;;45325:60;;45398:14;45415:28;45430:12;:10;:12::i;45415:28::-;45398:45;;45476:6;45458:15;:24;45454:65;;;45506:1;45499:8;;;;;;45454:65;45531:21;45573:6;45555:15;:24;45531:48;;45614:6;45594:4;:17;;;:26;45590:110;;;-1:-1:-1::0;45671:17:0::1;::::0;::::1;::::0;45653:15:::1;:35;45590:110;45710:23;45749:56;45791:13;45749:37;45771:4;:14;;;45749:4;:17;;;:21;;:37;;;;:::i;:56::-;45710:95:::0;-1:-1:-1;;;;;45073:775:0;:::o;47353:58::-;;;;;;;;;;;;;;;;;;;;;;;;;;;;;;;;;;;;;;;;;;;:::o;34233:210::-;34364:4;26798:1;27403:7;;:19;;27395:63;;;;;-1:-1:-1;;;27395:63:0;;;;;;;;;;;;-1:-1:-1;;;;;;;;;;;27395:63:0;;;;;;;;;;;;;;;26798:1;27536:7;:18;30499:13:::1;::::0;-1:-1:-1;;;;;30499:13:0::1;30483:12;:10;:12::i;:::-;-1:-1:-1::0;;;;;30483:29:0::1;;:55;;;-1:-1:-1::0;30532:6:0::1;::::0;-1:-1:-1;;;;;30532:6:0::1;30516:12;:10;:12::i;:::-;-1:-1:-1::0;;;;;30516:22:0::1;;30483:55;30461:139;;;;-1:-1:-1::0;;;30461:139:0::1;;;;;;;;;;;;;;;;;;;;;;;;;;;;;;;;;;;;34386:27:::2;34392:12;:10;:12::i;:::-;34406:6;34386:5;:27::i;33803:422::-:0;33945:4;26798:1;27403:7;;:19;;27395:63;;;;;-1:-1:-1;;;27395:63:0;;;;;;;;;;;;-1:-1:-1;;;;;;;;;;;27395:63:0;;;;;;;;;;;;;;;26798:1;27536:7;:18;33967:228:::1;33990:12;:10;:12::i;:::-;34017:7;34039:145;34096:15;34039:145;;;;;;;;;;;;;;;;;:11;:25;34051:12;:10;:12::i;:::-;-1:-1:-1::0;;;;;34039:25:0;;::::1;::::0;;::::1;::::0;;::::1;::::0;;;;;;;;-1:-1:-1;34039:25:0;;;:34;;::::1;::::0;;;;;;;;:145;:38:::1;:145::i;32287:238::-:0;32431:4;26798:1;27403:7;;:19;;27395:63;;;;;-1:-1:-1;;;27395:63:0;;;;;;;;;;;;-1:-1:-1;;;;;;;;;;;27395:63:0;;;;;;;;;;;;;;;26798:1;27536:7;:18;32453:42:::1;32463:12;:10;:12::i;:::-;32477:9;32488:6;32453:9;:42::i;42102:237::-:0;-1:-1:-1;;;;;42210:23:0;;42167:7;42210:23;;;:14;:23;;;;;;42264:16;:67;;42330:1;42264:67;;;-1:-1:-1;;;;;42283:20:0;;;;;;:11;:20;;;;;;;;-1:-1:-1;;42304:16:0;;42283:38;;;;;;;42319:1;42283:44;;42264:67;42244:87;42102:237;-1:-1:-1;;;42102:237:0:o;32191:88::-;30359:6;;-1:-1:-1;;;;;30359:6:0;30343:12;:10;:12::i;:::-;-1:-1:-1;;;;;30343:22:0;;30335:59;;;;;-1:-1:-1;;;30335:59:0;;;;;;;;;;;;-1:-1:-1;;;;;;;;;;;30335:59:0;;;;;;;;;;;;;;;32258:13;;::::1;::::0;:7:::1;::::0;:13:::1;::::0;::::1;::::0;::::1;:::i;:::-;;32191:88:::0;:::o;32103:80::-;30359:6;;-1:-1:-1;;;;;30359:6:0;30343:12;:10;:12::i;:::-;-1:-1:-1;;;;;30343:22:0;;30335:59;;;;;-1:-1:-1;;;30335:59:0;;;;;;;;;;;;-1:-1:-1;;;;;;;;;;;30335:59:0;;;;;;;;;;;;;;;32166:9;;::::1;::::0;:5:::1;::::0;:9:::1;::::0;::::1;::::0;::::1;:::i;38862:120::-:0;-1:-1:-1;;;;;38947:27:0;38920:7;38947:27;;;:18;:27;;;;;;;38862:120::o;39417:197::-;30499:13;;39554:4;;-1:-1:-1;;;;;30499:13:0;30483:12;:10;:12::i;:::-;-1:-1:-1;;;;;30483:29:0;;:55;;;-1:-1:-1;30532:6:0;;-1:-1:-1;;;;;30532:6:0;30516:12;:10;:12::i;:::-;-1:-1:-1;;;;;30516:22:0;;30483:55;30461:139;;;;-1:-1:-1;;;30461:139:0;;;;;;;;;;;;;;;;;;;;;;;;;;;;;;;;;;;;26798:1:::1;27403:7;;:19;;27395:63;;;::::0;;-1:-1:-1;;;27395:63:0;;::::1;;::::0;::::1;::::0;::::1;::::0;;;;-1:-1:-1;;;;;;;;;;;27395:63:0;;;;;;;;;;;;;::::1;;26798:1;27536:7;:18:::0;39583:23:::2;39594:3:::0;39599:6;39583:10:::2;:23::i;30969:93::-:0;31041:13;;-1:-1:-1;;;;;31041:13:0;30969:93;:::o;31629:293::-;30359:6;;-1:-1:-1;;;;;30359:6:0;30343:12;:10;:12::i;:::-;-1:-1:-1;;;;;30343:22:0;;30335:59;;;;;-1:-1:-1;;;30335:59:0;;;;;;;;;;;;-1:-1:-1;;;;;;;;;;;30335:59:0;;;;;;;;;;;;;;;26798:1:::1;27403:7;;:19;;27395:63;;;::::0;;-1:-1:-1;;;27395:63:0;;::::1;;::::0;::::1;::::0;::::1;::::0;;;;-1:-1:-1;;;;;;;;;;;27395:63:0;;;;;;;;;;;;;::::1;;26798:1;27536:7;:18:::0;31715:4:::2;::::0;31710:9;::::2;;31702:57;;;;-1:-1:-1::0;;;31702:57:0::2;;;;;;;;;;;;;;;;;;;;;;;;;;;;;;;;;;;;31797:12;;31792:1;:17;;31770:121;;;;-1:-1:-1::0;;;31770:121:0::2;;;;;;;;;;;;;;;;;;;;;;;;;;;;;;;;;;;;31902:8;:12:::0;26754:1:::1;27715:7;:22:::0;31629:293::o;32533:217::-;-1:-1:-1;;;;;32707:26:0;;;32675:7;32707:26;;;:11;:26;;;;;;;;:35;;;;;;;;;;;;;32533:217::o;44414:651::-;30499:13;;-1:-1:-1;;;;;30499:13:0;30483:12;:10;:12::i;:::-;-1:-1:-1;;;;;30483:29:0;;:55;;;-1:-1:-1;30532:6:0;;-1:-1:-1;;;;;30532:6:0;30516:12;:10;:12::i;:::-;-1:-1:-1;;;;;30516:22:0;;30483:55;30461:139;;;;-1:-1:-1;;;30461:139:0;;;;;;;;;;;;;;;;;;;;;;;;;;;;;;;;;;;;26798:1:::1;27403:7;;:19;;27395:63;;;::::0;;-1:-1:-1;;;27395:63:0;;::::1;;::::0;::::1;::::0;::::1;::::0;;;;-1:-1:-1;;;;;;;;;;;27395:63:0;;;;;;;;;;;;;::::1;;26798:1;27536:7;:18:::0;;;-1:-1:-1;;;;;44610:15:0;::::2;::::0;;:6:::2;:15;::::0;;;;:31:::2;;::::0;:36;44602:45:::2;;;::::0;::::2;;-1:-1:-1::0;;;;;44698:15:0;::::2;44660:35;44698:15:::0;;;:6:::2;:15;::::0;;;;44726:24;;;44761:12:::2;::::0;::::2;:23:::0;;;44795:14:::2;::::0;::::2;:28:::0;;;44857:15:::2;44834:20;::::0;::::2;:38:::0;;;44883:18:::2;::::0;::::2;:27:::0;;;44921:15:::2;::::0;::::2;:33:::0;44967:28:::2;44981:4;44744:6:::0;44967:5:::2;:28::i;:::-;45006:51;45034:4;45041:7;45050:6;45006:19;:51::i;39622:116::-:0;30359:6;;-1:-1:-1;;;;;30359:6:0;30343:12;:10;:12::i;:::-;-1:-1:-1;;;;;30343:22:0;;30335:59;;;;;-1:-1:-1;;;30335:59:0;;;;;;;;;;;;-1:-1:-1;;;;;;;;;;;30335:59:0;;;;;;;;;;;;;;;26798:1:::1;27403:7;;:19;;27395:63;;;::::0;;-1:-1:-1;;;27395:63:0;;::::1;;::::0;::::1;::::0;::::1;::::0;;;;-1:-1:-1;;;;;;;;;;;27395:63:0;;;;;;;;;;;;;::::1;;39707:13:::2;:23:::0;;-1:-1:-1;;;;;;39707:23:0::2;-1:-1:-1::0;;;;;39707:23:0;;;::::2;::::0;;;::::2;::::0;;-1:-1:-1;;27715:22:0;39622:116::o;30628:147::-;30359:6;;-1:-1:-1;;;;;30359:6:0;30343:12;:10;:12::i;:::-;-1:-1:-1;;;;;30343:22:0;;30335:59;;;;;-1:-1:-1;;;30335:59:0;;;;;;;;;;;;-1:-1:-1;;;;;;;;;;;30335:59:0;;;;;;;;;;;;;;;26798:1:::1;27403:7;;:19;;27395:63;;;::::0;;-1:-1:-1;;;27395:63:0;;::::1;;::::0;::::1;::::0;::::1;::::0;;;;-1:-1:-1;;;;;;;;;;;27395:63:0;;;;;;;;;;;;;::::1;;30749:6:::2;:18:::0;;-1:-1:-1;;;;;;30749:18:0::2;-1:-1:-1::0;;;;;30749:18:0;;;::::2;::::0;;;::::2;::::0;;-1:-1:-1;;27715:22:0;30628:147::o;20135:106::-;20223:10;20135:106;:::o;36658:449::-;-1:-1:-1;;;;;36816:27:0;;36794:113;;;;-1:-1:-1;;;36794:113:0;;;;;;;;;;;;;;;;;;;;;;;;;;;;;;;;;;;;-1:-1:-1;;;;;36926:21:0;;36918:68;;;;-1:-1:-1;;;36918:68:0;;;;;;;;;;;;;;;;;;;;;;;;;;;;;;;;;;;;-1:-1:-1;;;;;36999:26:0;;;;;;;:11;:26;;;;;;;;:35;;;;;;;;;;;;;:44;;;37059:40;;;;;;;;;;;;;;;;;36658:449;;;:::o;35010:669::-;-1:-1:-1;;;;;35150:20:0;;35142:70;;;;-1:-1:-1;;;35142:70:0;;;;;;;;;;;;;;;;;;;;;;;;;;;;;;;;;;;;-1:-1:-1;;;;;35231:23:0;;35223:71;;;;-1:-1:-1;;;35223:71:0;;;;;;;;;;;;;;;;;;;;;;;;;;;;;;;;;;;;35307:47;35328:6;35336:9;35347:6;35307:20;:47::i;:::-;35387:108;35423:6;35387:108;;;;;;;;;;;;;;;;;-1:-1:-1;;;;;35387:17:0;;;;;;:9;:17;;;;;;;:108;:21;:108::i;:::-;-1:-1:-1;;;;;35367:17:0;;;;;;;:9;:17;;;;;;:128;;;;35529:20;;;;;;;:32;;35554:6;35529:24;:32::i;:::-;-1:-1:-1;;;;;35506:20:0;;;;;;;:9;:20;;;;;;;;;:55;;;;35577:35;;;;;;;35506:20;;35577:35;;;;-1:-1:-1;;;;;;;;;;;35577:35:0;;;;;;;;35625:46;35645:6;35653:9;35664:6;35625:19;:46::i;:::-;35010:669;;;:::o;5886:200::-;6006:7;6042:12;6034:6;;;;6026:29;;;;-1:-1:-1;;;6026:29:0;;;;;;;;;;;;;;;;;;;;;;;;;;;;;;;;;;;;;;;;;;;;;;;;;;;;;;;;;;;;;;;;;;;;;;;;;;;;;;;;;;;;;;;;;;;;;;;;;;;;;;;-1:-1:-1;;;6073:5:0;;;5886:200::o;3059:179::-;3117:7;3149:5;;;3173:6;;;;3165:46;;;;;-1:-1:-1;;;3165:46:0;;;;;;;;;;;;;;;;;;;;;;;;;;;36134:516;-1:-1:-1;;;;;36218:21:0;;36210:67;;;;-1:-1:-1;;;36210:67:0;;;;;;;;;;;;;;;;;;;;;;;;;;;;;;;;;;;;36290:49;36311:7;36328:1;36332:6;36290:20;:49::i;:::-;36373:105;36410:6;36373:105;;;;;;;;;;;;;;;;;-1:-1:-1;;;;;36373:18:0;;;;;;:9;:18;;;;;;;:105;:22;:105::i;:::-;-1:-1:-1;;;;;36352:18:0;;;;;;:9;:18;;;;;:126;36504:12;;:24;;36521:6;36504:16;:24::i;:::-;36489:12;:39;36544:37;;;;;;;;36570:1;;-1:-1:-1;;;;;36544:37:0;;;-1:-1:-1;;;;;;;;;;;36544:37:0;;;;;;;;36594:48;36614:7;36631:1;36635:6;36594:19;:48::i;48201:443::-;-1:-1:-1;;;;;48321:11:0;;48261:7;48321:11;;;:6;:11;;;;;48401:5;;48376:22;;;;48261:7;;-1:-1:-1;48372:141:0;;;-1:-1:-1;48432:22:0;;;;48372:141;;;-1:-1:-1;48496:5:0;;48372:141;48527:16;;;;:20;48523:90;;48584:16;;;;48573:28;;:6;;:10;:28::i;:::-;48564:37;48630:6;-1:-1:-1;;;;48201:443:0:o;4636:153::-;4694:7;4726:1;4722;:5;4714:44;;;;;-1:-1:-1;;;4714:44:0;;;;;;;;;;;;;;;;;;;;;;;;;;;;4780:1;4776;:5;;;;;;;4636:153;-1:-1:-1;;;4636:153:0:o;3938:220::-;3996:7;4020:6;4016:20;;-1:-1:-1;4035:1:0;4028:8;;4016:20;4059:5;;;4063:1;4059;:5;:1;4083:5;;;;;:10;4075:56;;;;-1:-1:-1;;;4075:56:0;;;;;;;;;;;;;;;;;;;;;;;;;;;;;;;;;;;3521:158;3579:7;3612:1;3607;:6;;3599:49;;;;;-1:-1:-1;;;3599:49:0;;;;;;;;;;;;;;;;;;;;;;;;;;;;-1:-1:-1;3666:5:0;;;3521:158::o;38386:468::-;-1:-1:-1;;;;;38492:23:0;;38453:4;38492:23;;;:18;:23;;;;;;:33;-1:-1:-1;38492:33:0;38470:124;;;;-1:-1:-1;;;38470:124:0;;;;;;;;;;;;;;;;;;;;;;;;;;;;;;;;;;;;-1:-1:-1;;;;;38685:23:0;;;;;;:18;:23;;;;;;:35;;38713:6;38685:27;:35::i;:::-;-1:-1:-1;;;;;38659:23:0;;;;;;:18;:23;;;;;;;;:61;;;;38748:9;:14;;;;:26;;38767:6;38748:18;:26::i;:::-;-1:-1:-1;;;;;38731:14:0;;;;;;:9;:14;;;;;;;;;:43;;;;38792:30;;;;;;;;;;;;;;;;;;;;;;;;-1:-1:-1;38842:4:0;38386:468;;;;:::o;44029:377::-;-1:-1:-1;;;;;44132:20:0;;;44106:23;44132:20;;;:9;:20;;;;;;;;;;44190:9;:20;;;;;;44221;;;;:32;;;-1:-1:-1;;;;;;44221:32:0;;;;;;;44271:54;;44132:20;;;;;44190;;44221:32;;44132:20;;;44271:54;;44106:23;44271:54;44338:60;44353:15;44370:9;44381:16;44338:14;:60::i;:::-;44029:377;;;;:::o;37857:521::-;-1:-1:-1;;;;;38021:14:0;;37922:4;38021:14;;;:9;:14;;;;;;:24;-1:-1:-1;38021:24:0;37999:121;;;;-1:-1:-1;;;37999:121:0;;;;;;;;;;;;;;;;;;;;;;;;;;;;;;;;;;;;-1:-1:-1;;;;;38202:14:0;;;;;;:9;:14;;;;;;:26;;38221:6;38202:18;:26::i;:::-;-1:-1:-1;;;;;38185:14:0;;;;;;:9;:14;;;;;;;;:43;;;;38265:18;:23;;;;:35;;38293:6;38265:27;:35::i;:::-;-1:-1:-1;;;;;38239:23:0;;;;;;:18;:23;;;;;;;;;:61;;;;38318:28;;;;;;;;;;;;;;;;;;;;;;;;-1:-1:-1;38366:4:0;37857:521;;;;:::o;35687:439::-;-1:-1:-1;;;;;35771:21:0;;35763:65;;;;;-1:-1:-1;;;35763:65:0;;;;;;;;;;;;;;;;;;;;;;;;;;;;35841:49;35870:1;35874:7;35883:6;35841:20;:49::i;:::-;35918:12;;:24;;35935:6;35918:16;:24::i;:::-;35903:12;:39;-1:-1:-1;;;;;35974:18:0;;;;;;:9;:18;;;;;;:30;;35997:6;35974:22;:30::i;:::-;-1:-1:-1;;;;;35953:18:0;;;;;;:9;:18;;;;;;;;:51;;;;36020:37;;;;;;;35953:18;;;;-1:-1:-1;;;;;;;;;;;36020:37:0;;;;;;;;;36070:48;36098:1;36102:7;36111:6;36070:19;:48::i;47420:773::-;-1:-1:-1;;;;;47570:20:0;;47562:70;;;;-1:-1:-1;;;47562:70:0;;;;;;;;;;;;;;;;;;;;;;;;;;;;;;;;;;;;-1:-1:-1;;;;;47651:23:0;;47643:71;;;;-1:-1:-1;;;47643:71:0;;;;;;;;;;;;;;;;;;;;;;;;;;;;;;;;;;;;47727:47;47748:6;47756:9;47767:6;47727:20;:47::i;:::-;47807:108;47843:6;47807:108;;;;;;;;;;;;;;;;;-1:-1:-1;;;;;47807:17:0;;;;;;:9;:17;;;;;;;:108;:21;:108::i;:::-;-1:-1:-1;;;;;47787:17:0;;;;;;;:9;:17;;;;;;;;:128;;;;47958:29;;;;;:18;:29;;;;;:65;;48006:6;47958:33;:65::i;:::-;-1:-1:-1;;;;;47926:29:0;;;;;;;:18;:29;;;;;;;;;:97;;;;48041:35;;;;;;;47926:29;;48041:35;;;;-1:-1:-1;;;;;;;;;;;48041:35:0;;;;;;;;48092:34;;;-1:-1:-1;;;;;48092:34:0;;;;;;;;;;;;;;;;;;;;;;;48139:46;48159:6;48167:9;48178:6;48139:19;:46::i;37213:417::-;-1:-1:-1;;;;;37351:18:0;;37347:276;;37422:17;37442:25;37460:6;37442:13;:11;:13::i;:::-;:17;;:25::i;:::-;37422:45;;37521:8;;37508:9;:21;;:42;;;;;37546:4;;37533:9;:17;;37508:42;37482:129;;;;;-1:-1:-1;;;37482:129:0;;;;;;;;;;;;-1:-1:-1;;;37482:129:0;;;;;;;;;;;;;;37638:173;37771:32;37786:4;37792:2;37796:6;39746:1029;39886:6;-1:-1:-1;;;;;39876:16:0;:6;-1:-1:-1;;;;;39876:16:0;;;:30;;;;;39905:1;39896:6;:10;39876:30;39872:896;;;-1:-1:-1;;;;;39927:20:0;;;39923:409;;-1:-1:-1;;;;;39988:22:0;;39968:17;39988:22;;;:14;:22;;;;;;;40070:13;:110;;40179:1;40070:110;;;-1:-1:-1;;;;;40111:19:0;;;;;;:11;:19;;;;;;;;-1:-1:-1;;40131:13:0;;40111:34;;;;;;;40143:1;40111:40;;40070:110;40029:151;-1:-1:-1;40199:17:0;40219:21;40029:151;40233:6;40219:13;:21::i;:::-;40199:41;;40259:57;40276:6;40284:9;40295;40306;40259:16;:57::i;:::-;39923:409;;;;-1:-1:-1;;;;;40352:20:0;;;40348:409;;-1:-1:-1;;;;;40413:22:0;;40393:17;40413:22;;;:14;:22;;;;;;;40495:13;:110;;40604:1;40495:110;;;-1:-1:-1;;;;;40536:19:0;;;;;;:11;:19;;;;;;;;-1:-1:-1;;40556:13:0;;40536:34;;;;;;;40568:1;40536:40;;40495:110;40454:151;-1:-1:-1;40624:17:0;40644:21;40454:151;40658:6;40644:13;:21::i;:::-;40624:41;;40684:57;40701:6;40709:9;40720;40731;40684:16;:57::i;:::-;40348:409;;;39746:1029;;;:::o;40783:669::-;40982:1;40967:12;:16;:99;;;;-1:-1:-1;;;;;;41000:22:0;;;;;;:11;:22;;;;;;;;-1:-1:-1;;41023:16:0;;41000:40;;;;;;;:50;41054:12;41000:66;40967:99;40949:427;;;-1:-1:-1;;;;;41093:22:0;;;;;;:11;:22;;;;;;;;-1:-1:-1;;41116:16:0;;41093:40;;;;;;;41131:1;41093:46;:57;;;40949:427;;;41222:83;;;;;;;;41251:12;41222:83;;;;;;;;;-1:-1:-1;;;;;41183:22:0;;-1:-1:-1;41183:22:0;;;:11;:22;;;;;:36;;;;;;;;:122;;;;;;;;;;;41320:25;;:14;:25;;;;;;;41348:16;;;41320:44;;40949:427;41393:51;;;;;;;;;;;;;;-1:-1:-1;;;;;41393:51:0;;;;;;;;;;;40783:669;;;;:::o;-1:-1:-1:-;;;;;;;;;;;;;;;;;;;:::o;:::-;;;;;;;;;;;;;;;;;;;;;;;;;;;;;;;;;;;;;;;;;;;;;;;;;;;;;;;;;;;;;;;;;;;;;;;;;;;;;;;;;;;;;;;;;;;;:::i;:::-;;;:::o;:::-;;;;;;;;;;;;;;

Swarm Source

ipfs://c432bf8591e0b7b52993b1ba01476de7016249260e73114a5f8f6833e1bdb209
Block Transaction Gas Used Reward
Age Block Fee Address BC Fee Address Voting Power Jailed Incoming
Block Uncle Number Difficulty Gas Used Reward
Loading
Loading
Make sure to use the "Vote Down" button for any spammy posts, and the "Vote Up" for interesting conversations.